GFSNE_850_spd_000.txt.gz
Wind_Speed
36 37 38 39 34 31 29 28 28 30 33 28 27 30 35 32 30 48 51 49 51 52 50 48 52 49 45 42 42 43 41 42 43 39 37 35 31 29
35 36 36 38 37 35 32 30 29 30 35 32 27 23 28 36 33 30 45 44 44 48 52 50 49 52 51 47 45 46 45 45 44 39 38 36 32 28
35 39 39 39 40 40 36 35 34 32 35 36 31 30 29 27 34 42 17 36 48 46 49 53 51 50 52 52 50 49 49 49 46 37 35 36 31 29
35 36 40 42 44 43 42 40 38 36 35 38 33 30 29 35 34 40 46 28 31 50 51 45 54 54 52 53 54 52 53 49 47 40 37 36 33 30
36 37 39 40 42 44 45 43 41 40 39 39 37 32 28 24 30 27 32 39 32 32 41 50 48 53 51 52 54 55 55 51 43 39 37 33 30 28
39 41 43 39 41 40 41 41 40 38 37 38 36 33 29 24 28 27 28 33 39 29 30 46 51 49 47 54 54 53 53 48 43 39 33 36 34 32
35 38 40 44 43 44 42 38 39 37 37 37 35 33 31 26 30 27 29 31 35 32 29 39 46 49 49 54 53 56 54 49 43 39 34 35 38 31
35 36 38 38 39 41 46 49 42 31 36 34 35 34 34 31 25 28 28 29 30 34 33 42 46 50 52 58 62 56 51 49 44 37 32 33 30 32
33 34 33 35 36 35 37 40 49 51 47 35 32 34 34 31 28 28 32 33 34 33 35 41 45 49 58 64 60 46 47 47 39 38 31 32 33 32
36 36 38 39 37 34 35 37 38 37 42 48 44 31 31 28 29 28 30 30 31 29 33 36 44 42 49 54 49 44 50 46 41 36 32 32 32 29
34 35 36 38 40 41 40 41 38 38 36 37 37 42 32 27 25 27 29 31 33 33 37 36 45 40 39 38 42 48 47 45 38 32 30 31 28 28
30 30 32 34 35 37 40 41 38 37 30 34 38 40 38 37 28 30 30 33 33 29 38 42 38 41 27 29 30 32 37 29 28 29 29 30 28 26
27 28 31 34 35 33 35 40 40 34 32 29 28 34 36 38 41 32 28 36 39 36 36 40 37 40 27 29 32 29 34 36 35 32 29 28 25 23
28 28 29 32 33 35 37 34 37 37 34 28 30 29 30 35 37 34 34 28 39 32 32 31 42 45 47 31 38 38 37 36 35 34 31 30 29 28
21 24 29 32 30 25 32 32 32 37 36 37 26 25 27 26 26 33 40 34 31 37 30 31 37 42 44 35 45 48 43 38 33 27 30 31 28 26
18 20 20 18 12 7 15 23 29 34 36 31 30 23 22 26 27 34 41 38 36 32 28 26 35 35 41 35 37 42 38 34 36 33 32 28 23 23
16 12 12 11 6 3 8 16 23 29 31 27 20 27 23 24 28 36 37 40 37 33 28 27 27 29 29 34 27 31 37 36 26 29 27 26 24 20
9 10 11 13 13 9 10 13 18 23 25 23 29 24 25 27 28 33 35 37 39 33 32 32 31 32 28 23 19 25 24 25 24 25 26 21 16 18
15 15 15 14 12 12 11 14 19 22 23 26 28 25 25 26 30 28 32 34 35 35 31 33 31 28 27 23 24 23 19 22 25 22 21 19 15 15
19 19 19 18 16 15 14 14 15 13 17 19 21 23 25 25 24 24 26 32 35 33 30 28 23 21 22 24 23 28 25 22 21 18 19 17 18 22
19 18 18 19 19 20 19 16 16 18 17 17 17 18 20 23 24 26 26 30 30 29 27 24 23 23 24 25 23 29 28 25 22 16 17 14 11 10
19 19 21 22 22 21 20 20 20 19 20 19 20 20 20 24 27 29 31 31 26 23 24 26 23 21 19 17 20 20 23 21 18 18 15 16 13 11
15 15 15 17 18 19 20 22 22 21 20 21 23 24 24 26 26 27 26 25 24 24 23 22 19 17 16 16 15 14 15 15 12 11 14 16 18 18

GFSNE_850_spd_003.txt.gz
Wind_Speed
34 35 38 41 40 40 39 36 34 30 33 33 30 27 32 32 35 42 33 48 58 45 48 53 58 58 54 56 53 49 50 49 47 45 43 40 40 38
34 35 38 39 39 40 40 41 40 37 37 34 33 31 27 30 28 32 48 33 50 63 42 48 55 59 58 57 58 55 54 52 49 46 46 46 44 42
34 36 39 40 41 42 41 41 41 37 37 37 33 33 35 30 28 24 30 40 27 27 57 51 55 57 60 59 57 53 59 57 53 51 50 47 46 45
36 36 38 38 41 43 45 44 42 40 39 39 36 36 35 35 33 31 33 36 37 39 28 46 53 58 59 59 58 55 50 57 54 52 50 49 46 39
37 38 39 39 41 43 44 42 42 43 42 39 41 36 38 35 32 29 32 31 33 41 38 23 31 50 57 58 58 56 55 55 55 53 50 51 45 39
37 38 41 42 44 42 40 39 39 40 40 41 41 38 38 37 35 32 33 34 32 29 42 35 34 33 49 58 58 59 57 57 58 56 52 54 44 39
39 39 41 43 42 46 43 39 35 36 36 37 40 37 36 35 34 32 28 28 31 29 30 44 47 30 45 48 57 59 60 59 60 57 61 51 45 42
38 37 36 36 37 39 42 47 48 40 37 28 34 35 36 35 32 32 28 28 28 30 30 30 40 33 33 55 57 57 61 61 61 60 58 49 45 38
36 36 36 35 35 35 35 37 39 43 52 53 41 30 31 32 32 32 31 30 27 24 25 27 30 43 34 42 50 54 57 59 62 63 59 49 38 31
37 37 38 39 39 39 39 37 38 38 38 45 58 53 34 29 24 20 25 30 26 25 24 25 28 32 37 40 44 55 54 58 63 61 47 41 38 36
33 34 35 37 37 37 38 40 43 38 35 38 38 50 55 44 33 23 18 23 23 27 26 27 25 30 30 35 34 37 48 62 56 50 46 39 39 35
36 33 31 32 32 32 34 37 41 41 39 39 33 39 36 52 46 35 23 28 26 26 29 29 26 32 17 22 31 32 40 44 48 48 43 40 38 37
33 32 31 32 31 30 32 33 36 34 36 35 33 34 33 34 53 41 34 25 30 27 22 32 31 32 21 24 25 30 34 33 36 37 41 41 38 33
30 28 27 27 30 34 36 35 37 36 34 33 33 31 29 32 35 37 28 27 24 22 23 21 30 31 31 25 30 27 29 31 30 31 32 31 28 30
25 23 25 25 26 28 27 30 39 36 35 33 30 30 29 27 29 29 27 31 30 23 24 19 22 28 33 32 34 37 33 32 34 34 31 32 35 36
20 20 16 18 20 19 19 19 24 33 31 31 30 25 25 24 25 27 31 30 29 24 24 26 26 26 31 33 32 40 41 33 37 33 33 33 35 34
14 15 13 14 14 11 8 2 16 21 23 26 25 23 17 21 21 27 33 28 26 24 24 27 23 23 25 27 28 36 39 34 35 36 37 35 28 29
16 16 15 14 13 12 13 7 13 16 19 22 20 19 17 22 23 25 23 25 29 25 26 27 26 25 21 18 18 28 36 35 33 34 33 31 29 28
21 21 20 18 17 12 11 15 12 12 15 16 12 21 17 15 14 16 20 25 27 30 27 29 28 26 21 18 19 20 27 32 34 32 30 30 26 23
24 22 23 21 18 16 13 14 11 12 13 13 15 14 14 13 13 15 20 21 26 28 27 23 21 20 20 24 25 28 26 28 31 30 28 23 20 20
25 25 24 23 23 22 16 14 15 11 10 10 13 15 15 15 17 17 18 21 25 25 22 20 20 19 22 21 26 29 28 24 22 21 24 25 22 24
21 20 22 24 23 21 21 19 16 18 15 14 14 14 16 15 17 19 20 21 20 24 25 24 23 19 19 18 26 33 29 26 24 25 24 21 17 14
20 20 19 19 20 20 21 20 20 20 19 17 13 12 11 15 23 24 24 26 28 26 24 24 21 15 13 17 22 25 28 28 25 23 22 22 21 20

GFSNE_850_spd_006.txt.gz
Wind_Speed
32 34 36 35 34 34 37 38 39 41 41 31 33 31 29 25 26 32 33 33 40 40 45 48 41 46 55 56 54 51 50 51 51 53 54 49 48 43
34 34 34 34 34 35 36 37 35 38 42 38 37 34 33 31 28 28 31 32 36 42 38 47 53 47 52 58 59 57 54 51 51 55 56 54 50 46
35 36 37 37 39 40 39 39 39 38 39 45 37 36 29 29 35 31 32 34 35 33 38 44 36 47 48 59 66 62 59 57 55 54 57 56 52 50
37 37 38 38 39 38 38 40 39 39 37 45 40 35 36 35 36 40 34 34 37 39 42 40 51 39 40 43 59 64 62 61 60 59 59 57 55 54
38 38 39 39 40 41 41 40 39 38 37 37 45 41 39 34 31 33 40 36 39 41 38 37 43 41 39 53 46 57 65 62 57 64 64 63 61 56
35 36 37 37 37 38 41 42 40 36 33 32 34 40 37 37 35 37 38 43 44 45 42 39 39 38 40 35 44 44 54 61 62 61 61 64 62 60
43 44 47 49 50 50 48 52 47 42 40 34 37 34 32 34 36 37 36 37 42 44 43 40 39 36 45 42 48 28 45 55 62 61 69 69 61 55
46 47 47 45 42 40 40 43 49 51 47 41 40 37 35 24 29 33 34 36 41 42 39 38 38 35 35 41 37 40 34 51 60 61 64 64 57 55
42 41 42 41 39 38 38 37 38 38 42 44 50 48 40 36 23 22 29 35 32 35 34 36 29 31 31 33 39 38 41 42 50 59 63 59 64 59
34 34 35 35 34 37 39 41 41 42 40 40 41 44 50 51 46 25 21 22 29 28 35 32 27 28 31 32 33 37 32 43 44 56 61 60 69 64
36 36 36 36 35 32 36 41 42 41 39 42 40 39 36 34 40 49 40 26 19 25 32 27 24 24 24 26 27 26 31 30 50 57 63 61 67 64
40 36 37 36 36 37 33 35 38 39 39 39 38 44 39 37 37 38 49 39 33 24 24 24 23 21 14 16 20 25 23 36 51 51 63 64 69 62
38 38 35 33 32 32 33 37 36 32 33 34 35 35 35 38 38 35 41 46 44 33 23 26 24 22 19 10 13 13 20 32 40 46 64 66 60 56
35 34 33 29 27 26 28 34 34 30 36 39 35 33 33 34 33 31 31 44 48 37 24 26 23 22 24 15 16 18 19 26 35 48 53 52 50 47
28 24 24 25 22 21 23 26 28 34 40 38 35 33 31 28 27 27 26 32 29 33 27 17 14 16 24 24 23 27 30 29 31 37 40 40 45 46
23 21 17 16 16 18 19 19 20 25 31 32 34 29 26 23 24 21 26 25 29 25 23 15 16 18 21 26 26 30 32 29 34 33 36 36 36 36
21 19 17 17 17 14 14 13 9 7 14 20 25 22 23 24 23 21 24 26 27 24 21 20 19 20 21 23 25 30 34 32 34 36 35 35 34 34
20 23 23 18 20 18 18 8 5 5 8 13 16 16 12 15 21 22 20 20 22 25 28 25 23 24 18 16 19 28 32 32 32 35 34 33 32 30
25 26 26 26 19 17 17 16 6 3 5 8 12 9 15 13 21 17 15 19 25 24 25 26 26 26 24 23 19 22 29 34 34 35 32 31 31 30
25 28 29 24 24 19 16 15 13 9 5 3 7 16 13 11 9 10 14 16 21 26 27 25 25 25 23 28 21 25 26 30 32 33 33 31 27 23
24 25 25 26 23 20 17 17 14 11 7 7 10 10 8 6 8 9 13 14 19 24 27 26 22 21 19 18 19 25 23 23 26 31 32 30 27 26
22 23 23 22 24 24 19 15 16 16 14 11 8 8 10 11 13 16 17 20 21 25 26 24 21 20 16 18 25 29 29 26 23 22 26 30 30 25
19 20 21 22 22 21 22 21 17 16 14 12 8 8 10 13 14 15 19 20 21 22 22 21 20 20 20 18 24 29 28 25 24 26 26 25 20 20

GFSNE_850_spd_012.txt.gz
Wind_Speed
30 31 32 33 34 34 35 33 33 32 32 29 26 23 24 23 20 23 26 18 19 24 24 18 20 22 21 24 27 29 28 38 50 52 52 48 52 52
32 34 36 36 35 33 33 33 32 35 38 30 31 29 29 31 31 29 27 28 26 27 29 29 26 26 26 23 21 30 30 35 22 56 53 48 52 54
34 36 38 37 37 36 35 36 36 35 40 35 33 32 31 30 31 31 32 37 36 28 23 28 27 24 27 26 24 24 27 33 31 27 56 54 51 56
36 35 36 34 35 36 36 36 37 38 39 40 35 33 30 27 26 27 27 29 31 34 33 30 34 31 25 26 27 25 23 23 28 33 29 59 60 54
35 35 36 36 38 38 37 37 38 39 40 40 38 35 36 35 35 36 37 33 33 33 31 30 30 30 29 28 30 32 30 26 25 30 36 35 67 61
34 34 37 40 42 44 44 44 44 45 48 44 42 37 34 33 32 32 33 34 36 30 29 33 31 31 34 34 32 31 31 33 28 27 31 41 42 67
40 43 45 46 47 47 46 47 44 45 46 43 42 34 35 32 30 30 33 31 32 32 30 32 32 34 34 31 31 29 30 33 33 32 31 35 37 49
44 41 36 32 31 30 31 32 33 35 38 37 36 34 34 31 31 32 33 30 28 23 30 33 31 33 31 31 31 31 28 29 29 31 33 35 38 43
34 33 32 32 32 33 35 35 33 33 35 35 36 36 36 33 31 31 31 34 37 35 31 22 26 29 29 30 30 30 29 30 33 33 34 37 39 40
30 32 35 36 36 35 35 35 36 36 34 34 35 34 32 33 35 33 31 30 30 35 38 33 22 29 29 29 29 30 31 33 31 35 35 37 41 42
33 32 31 32 32 32 32 34 37 39 36 34 32 32 30 28 28 27 30 30 34 31 28 35 35 25 22 26 25 26 23 25 31 33 36 33 40 41
30 29 30 30 28 28 29 30 33 34 34 33 32 32 28 27 28 33 34 34 32 26 25 27 28 27 21 28 31 25 23 26 31 30 31 36 37 41
30 32 31 27 27 27 26 26 29 29 31 31 31 30 28 27 26 27 32 34 34 34 29 19 24 30 31 24 23 22 26 27 29 26 28 35 40 42
27 28 28 27 28 25 24 22 23 24 28 31 31 31 29 27 26 25 24 27 30 32 30 26 27 27 24 23 24 20 22 26 28 30 32 31 35 39
23 23 22 24 21 20 20 19 21 23 26 29 30 29 30 30 24 20 22 23 23 25 26 28 32 31 33 36 29 26 23 24 26 24 26 23 30 33
18 22 20 19 13 14 12 9 8 12 18 23 22 22 24 23 24 26 23 21 21 24 26 27 30 31 32 31 30 27 23 25 26 23 24 26 28 27
19 19 23 20 19 19 14 10 10 12 15 7 7 11 12 13 17 18 21 20 24 26 26 25 27 28 31 28 26 25 22 24 25 21 19 19 24 30
13 18 23 21 20 20 19 17 14 13 12 10 6 4 1 4 8 13 17 22 21 24 23 24 24 27 26 17 17 18 20 20 22 18 16 17 15 18
12 16 18 20 20 20 18 17 17 14 11 5 5 4 5 7 10 13 15 16 17 20 19 22 25 22 20 16 13 15 15 16 18 15 13 18 17 15
13 15 17 17 17 18 18 18 16 15 15 10 5 6 7 7 6 3 4 7 8 10 14 16 16 17 16 14 12 9 10 12 14 14 14 12 10 11
13 14 15 17 18 17 17 18 16 15 13 12 7 3 3 4 3 2 2 4 5 7 12 12 13 17 16 11 9 8 6 7 7 8 13 12 13 16
12 13 14 15 17 19 19 19 20 19 15 12 10 8 6 5 4 3 2 4 4 7 9 8 9 8 8 8 10 13 13 12 11 12 11 13 15 15
11 11 12 13 15 16 17 19 21 21 19 15 12 11 9 4 4 4 3 2 1 2 4 7 8 6 4 6 9 13 13 11 10 11 10 12 8 5

GFSNE_850_spd_015.txt.gz
Wind_Speed
17 21 23 25 27 27 28 30 29 33 34 31 30 30 31 28 27 31 29 26 19 18 16 16 15 16 16 20 25 24 28 31 24 31 54 52 46 46
22 26 28 30 31 32 32 31 32 35 39 32 32 32 32 29 27 26 29 28 29 27 26 20 16 16 20 20 18 18 18 24 27 18 14 46 40 47
27 30 33 32 33 33 32 31 31 33 39 38 32 33 36 36 35 35 32 31 31 30 32 29 23 19 17 18 19 19 18 18 21 29 32 29 48 49
31 31 33 34 35 34 33 34 34 35 37 41 36 33 33 32 32 30 31 31 30 29 28 30 32 30 25 24 23 22 22 18 13 20 28 30 32 51
32 33 34 32 34 34 33 35 36 38 39 41 40 35 35 38 40 39 38 39 38 36 35 33 31 30 29 28 25 25 26 22 23 20 18 28 33 39
33 33 34 36 39 41 43 45 46 46 45 42 42 35 33 32 33 38 41 39 40 37 35 33 33 29 28 22 26 25 25 25 23 23 26 22 29 35
36 39 41 41 40 37 35 36 34 36 36 33 32 31 30 29 30 32 37 38 38 35 34 32 31 31 33 30 27 28 28 25 24 24 24 29 27 31
37 38 39 35 33 32 31 31 31 32 34 34 34 34 31 30 30 30 32 33 36 32 32 32 28 32 31 32 28 28 29 27 25 23 23 24 30 31
36 35 33 32 33 35 35 34 34 35 35 35 37 36 37 34 31 30 30 30 33 29 26 29 27 27 30 30 27 29 30 27 26 25 25 26 28 33
30 29 30 31 30 30 30 34 34 34 34 36 36 35 34 31 31 29 29 32 32 31 29 34 35 39 25 24 26 27 28 28 28 27 26 26 29 31
27 26 28 29 27 27 28 30 32 34 33 33 35 33 29 27 26 27 28 32 33 33 26 29 30 32 37 25 23 26 26 27 27 25 23 24 28 30
27 27 28 28 29 26 28 31 35 34 33 30 29 28 27 28 26 29 32 35 31 28 28 28 25 23 24 40 33 20 23 25 24 24 22 22 25 31
27 27 29 30 29 27 29 34 32 30 28 27 27 29 29 27 28 28 30 33 37 36 32 25 21 20 24 17 19 23 20 19 19 22 24 23 25 29
24 24 27 29 29 30 26 24 24 26 24 24 26 28 29 30 29 25 26 27 30 34 33 30 29 29 27 25 29 24 21 15 19 21 21 21 21 29
20 23 26 27 22 19 18 17 16 16 17 20 23 25 25 26 23 22 20 18 21 20 22 24 28 27 31 30 31 29 27 22 24 21 16 20 20 19
22 22 21 17 14 15 14 12 11 10 12 17 19 16 16 17 18 16 18 21 18 19 21 23 25 27 30 32 33 30 31 25 27 23 21 21 20 21
20 18 19 16 15 15 15 15 13 11 12 13 12 6 5 7 9 13 14 19 18 20 20 21 21 23 26 30 32 29 24 26 26 23 21 17 18 18
15 16 18 17 18 18 18 18 17 16 15 12 11 9 6 4 3 5 7 13 16 18 20 19 21 23 26 28 28 26 23 23 20 17 15 13 13 13
12 14 17 18 19 19 17 16 17 17 15 11 9 11 9 9 8 11 11 11 14 16 15 16 20 22 25 23 22 23 20 15 13 11 8 7 9 8
12 14 16 18 19 20 19 18 16 14 14 12 7 9 11 11 10 9 6 4 6 6 8 9 11 19 23 21 15 11 13 9 6 5 3 4 4 3
13 14 15 16 17 19 20 20 19 17 15 13 11 9 8 8 8 6 4 3 3 4 4 5 9 12 9 8 8 8 7 6 4 2 3 6 7 7
12 13 14 15 16 18 19 20 21 20 18 16 15 13 11 9 9 9 8 6 4 2 3 1 2 2 5 6 9 11 9 8 7 6 8 5 7 7
12 12 13 14 15 16 17 18 20 20 21 19 16 14 12 10 10 10 10 9 8 5 5 4 4 3 2 5 9 10 10 8 8 7 6 5 4 3

GFSNE_850_spd_018.txt.gz
Wind_Speed
14 15 14 13 14 16 20 23 24 29 34 32 34 33 30 29 28 28 27 26 26 24 25 22 19 16 16 18 15 24 33 24 28 30 23 37 41 42
14 15 17 19 22 24 26 28 28 29 36 34 33 36 33 31 29 29 30 30 31 29 27 28 27 22 17 17 21 15 19 27 31 25 24 25 48 51
20 22 25 26 28 28 29 29 29 29 33 38 34 33 34 33 31 31 31 29 29 28 27 27 28 27 23 19 15 21 15 19 27 27 27 24 25 41
26 28 29 30 32 31 30 31 31 30 30 36 36 34 36 36 33 32 34 32 33 32 32 31 29 29 29 27 24 19 23 18 18 27 23 25 26 28
30 32 31 30 31 31 32 34 36 38 40 41 44 40 38 41 41 40 40 40 38 36 35 35 33 33 32 32 30 27 24 27 24 23 26 21 25 30
31 31 33 34 36 37 37 38 37 36 35 34 36 37 32 33 33 33 36 36 37 34 33 34 33 33 33 33 34 33 31 28 29 26 25 28 23 25
34 34 35 34 35 34 33 33 32 32 31 30 32 34 32 29 31 30 32 32 33 32 33 32 32 32 33 33 33 33 30 31 31 30 26 25 28 27
35 36 34 33 31 28 27 26 28 30 32 33 35 36 34 32 30 29 30 29 34 29 27 30 27 31 28 29 33 34 33 31 30 29 28 28 28 30
31 31 30 29 27 26 26 26 26 27 28 31 36 37 39 36 35 33 33 32 33 30 29 31 23 24 23 25 25 30 35 34 31 29 29 30 28 28
29 29 27 26 25 24 25 28 29 30 30 31 33 35 34 33 34 36 32 32 32 31 27 33 29 31 30 31 26 24 29 32 30 28 29 29 28 28
28 23 23 23 24 24 26 29 30 30 27 28 30 30 30 29 29 29 31 31 32 34 28 29 29 27 25 24 31 27 25 27 27 29 29 29 29 30
25 26 22 23 24 25 28 30 33 29 27 34 33 29 26 25 27 28 32 34 31 24 29 28 24 20 20 20 19 29 23 20 23 25 25 28 28 29
27 25 23 24 28 32 28 27 29 27 26 24 27 27 25 24 26 28 30 33 35 33 33 23 20 17 20 21 17 11 26 22 17 20 23 24 25 25
21 22 24 26 30 26 23 22 20 20 20 20 21 24 26 26 25 24 26 28 30 34 33 30 29 26 23 24 23 15 18 21 17 14 17 20 23 25
19 23 23 23 23 18 16 14 12 11 11 12 15 19 20 19 19 21 20 18 19 24 26 28 30 28 27 26 25 21 12 15 18 17 16 15 20 24
21 20 20 20 16 14 13 14 13 12 11 11 15 15 10 6 9 12 16 16 18 18 20 20 21 22 25 24 24 28 29 24 16 17 20 20 19 22
17 17 17 18 17 15 13 13 14 13 12 11 12 13 10 6 4 5 8 11 15 15 17 17 18 21 23 25 27 26 25 27 23 22 22 23 21 20
14 14 17 19 20 20 20 15 14 17 14 10 10 11 10 8 6 4 5 10 12 14 17 17 17 17 21 23 24 26 26 21 18 19 22 20 18 17
12 14 16 19 21 22 22 20 16 16 15 12 10 11 11 11 11 6 5 9 11 13 16 17 15 17 22 22 20 20 22 20 19 19 15 14 14 13
14 15 17 18 19 21 21 22 17 17 15 14 12 10 10 9 9 7 8 6 2 3 3 5 3 10 16 18 16 12 14 16 15 11 11 11 10 9
15 15 16 17 18 19 19 20 20 18 17 15 13 12 10 10 8 6 3 3 3 3 3 1 1 3 5 7 11 11 11 13 11 10 8 8 7 7
14 15 16 17 18 18 19 19 19 20 20 19 16 14 13 11 11 10 9 7 5 4 4 4 4 4 5 6 8 10 9 9 8 7 8 6 5 4
13 14 15 16 16 17 17 18 18 18 20 20 20 17 14 11 11 10 9 8 7 7 7 5 4 3 3 7 9 9 10 9 9 8 7 6 4 3

GFSNE_850_spd_021.txt.gz
Wind_Speed
12 13 13 14 14 15 17 19 16 22 27 24 25 19 20 20 21 21 21 25 27 27 28 27 28 28 26 24 24 23 24 26 35 33 37 38 28 41
12 11 12 14 16 17 18 16 17 22 30 26 25 24 23 24 25 25 23 26 28 29 29 30 30 30 32 28 26 27 26 21 25 32 33 39 36 37
15 16 18 20 21 19 19 20 22 22 27 30 26 24 25 25 24 25 25 26 26 29 28 29 31 31 31 32 28 27 27 27 22 22 28 35 34 37
21 23 25 24 23 21 20 21 21 22 25 29 29 27 27 26 26 27 27 27 27 26 31 31 33 33 33 33 33 30 28 28 27 24 23 26 32 32
26 26 26 25 24 20 22 24 24 25 26 29 32 29 28 27 29 28 28 29 30 32 35 34 35 36 36 36 35 36 34 29 30 28 25 24 28 35
29 30 29 27 25 24 23 23 23 24 24 26 28 28 26 25 26 27 28 25 26 25 28 30 32 34 36 37 38 38 39 38 33 31 32 30 28 27
29 29 29 29 29 28 25 24 24 25 24 24 25 27 26 23 25 23 26 24 25 24 24 25 25 26 28 34 38 39 39 42 40 36 35 35 36 30
27 26 26 27 25 25 24 23 23 25 25 26 27 30 28 27 26 27 28 26 27 20 21 22 19 23 24 25 29 35 37 39 40 42 36 35 35 35
26 25 24 22 22 20 21 22 23 25 27 28 31 31 30 28 27 27 28 30 29 23 23 25 22 24 20 22 25 29 32 35 38 37 39 33 31 35
25 22 21 20 20 20 20 22 23 24 25 28 31 31 30 27 27 27 28 29 30 28 25 30 22 24 21 22 29 28 28 30 34 36 37 36 32 32
20 19 20 21 19 19 19 24 27 28 28 30 29 30 29 27 27 28 30 26 28 26 25 27 23 24 22 24 24 26 30 29 27 31 35 37 34 32
20 19 21 18 18 19 22 28 29 26 24 24 26 27 28 28 27 29 32 30 27 21 22 22 19 16 14 13 14 17 23 31 28 26 30 33 33 34
21 20 19 20 20 21 25 21 22 25 24 22 21 20 21 22 23 23 25 29 30 26 22 19 15 15 15 13 10 13 11 24 30 28 26 29 30 33
19 18 20 23 21 20 16 17 18 18 16 15 14 14 16 18 19 20 20 23 26 28 26 21 21 19 16 16 15 11 9 12 22 21 18 21 25 28
16 17 19 19 18 14 11 12 13 11 12 11 11 13 14 14 15 15 15 15 16 19 22 25 28 22 22 19 16 13 10 11 17 22 16 16 18 20
18 14 14 14 13 12 10 9 10 11 10 10 10 11 12 9 6 7 10 11 13 16 17 18 22 23 23 23 19 18 17 12 12 15 18 17 17 16
13 11 12 14 15 15 11 7 9 12 10 8 9 10 10 8 6 4 6 7 10 9 12 13 15 18 19 19 20 17 17 18 20 19 20 21 21 20
9 11 13 15 17 18 18 15 11 12 13 10 8 9 10 10 7 5 3 5 8 9 9 10 13 13 14 17 19 19 17 15 15 15 18 19 20 21
11 13 15 15 16 17 19 19 16 14 13 12 10 9 8 8 7 8 5 5 7 7 8 11 13 15 14 14 13 17 21 20 18 18 17 18 19 19
13 15 16 16 17 18 18 19 18 16 14 13 12 10 9 8 8 5 5 5 2 2 3 4 4 7 10 10 10 11 13 17 17 16 16 17 19 18
13 13 15 16 17 17 17 17 16 17 16 14 13 12 11 10 8 6 4 3 2 2 1 1 2 3 5 7 9 9 9 12 13 14 13 11 10 10
12 13 14 15 15 16 16 17 16 16 17 17 15 13 11 10 9 8 7 5 3 1 1 1 2 4 6 5 7 8 8 8 9 9 9 10 7 3
13 14 14 14 14 15 15 16 17 16 16 17 18 16 13 11 10 9 8 6 5 4 3 2 1 2 4 7 7 8 8 8 8 7 6 6 6 7

GFSNE_850_spd_024.txt.gz
Wind_Speed
9 12 12 13 15 13 12 10 11 14 20 18 18 18 18 18 18 19 20 21 25 27 27 28 30 32 32 32 31 32 33 32 32 33 34 40 36 34
9 11 12 12 11 12 12 14 15 18 26 22 22 21 22 22 22 23 23 26 28 31 29 30 31 33 34 34 35 35 34 34 32 33 34 34 38 39
12 13 14 17 18 18 18 19 21 21 27 29 25 24 25 25 25 25 25 24 24 27 30 28 30 32 34 35 36 38 38 37 36 34 33 33 33 38
16 17 19 19 20 20 20 22 23 23 26 30 29 29 28 27 28 28 27 26 27 27 29 32 31 32 34 36 37 38 40 40 38 36 34 33 31 31
19 19 19 19 20 20 21 23 23 24 25 27 32 29 29 28 29 28 28 28 28 29 32 35 38 37 37 39 40 41 41 42 41 38 37 35 31 30
19 19 20 20 21 21 22 23 24 25 25 26 29 30 27 26 27 28 29 27 29 27 28 30 30 30 33 37 41 42 43 43 44 41 38 37 34 32
21 21 20 21 26 28 25 23 24 26 26 26 27 28 27 25 27 27 28 26 27 24 25 26 25 25 25 27 33 38 41 43 43 44 42 39 37 36
21 20 21 22 23 24 27 27 24 24 23 23 25 27 26 25 24 24 25 26 29 23 26 28 25 28 25 25 26 29 32 35 41 44 46 44 42 38
22 22 23 22 23 22 22 24 26 25 25 25 29 30 29 26 25 25 26 26 28 26 26 31 25 25 24 24 26 30 33 35 38 40 43 45 45 42
22 23 22 22 20 21 20 20 21 22 22 25 27 29 29 29 29 28 27 26 27 26 27 33 27 29 25 26 26 28 29 31 32 35 39 41 42 42
21 20 20 21 22 22 21 23 22 23 25 29 31 32 34 34 34 29 28 24 29 27 25 29 26 28 26 27 26 26 28 26 30 33 34 35 37 38
21 20 21 22 20 19 20 23 23 25 21 23 24 25 25 26 29 33 34 35 31 26 22 22 22 20 18 18 18 17 18 22 26 32 32 30 34 36
21 21 18 19 21 24 23 23 22 22 23 21 20 19 18 19 21 23 26 29 30 30 24 20 15 16 18 17 12 9 10 13 18 27 31 29 30 34
21 19 19 23 23 21 18 16 16 17 15 16 15 15 14 15 16 19 21 23 24 24 21 22 22 20 17 17 15 13 14 13 13 17 26 30 30 31
18 19 17 19 18 13 13 12 11 11 13 12 12 13 13 14 13 14 18 19 19 21 23 24 24 20 17 18 16 13 14 13 14 16 21 26 28 30
19 14 15 13 11 12 11 9 7 9 11 11 11 11 11 12 11 8 9 11 13 14 16 18 20 22 23 20 18 17 15 10 9 11 18 16 14 21
14 11 10 11 10 11 11 9 8 8 10 9 9 9 9 10 10 8 7 7 10 9 10 11 12 16 19 20 19 16 15 15 16 12 11 14 15 17
8 9 10 12 11 12 13 13 12 11 11 11 9 9 9 9 9 10 8 5 7 8 8 7 9 9 11 16 19 18 15 14 14 16 17 16 13 16
7 9 11 13 13 13 12 12 13 13 11 11 11 11 11 8 9 9 8 7 8 8 8 8 9 11 13 15 13 15 20 15 14 15 14 15 14 15
9 10 11 12 13 13 14 13 13 14 13 13 12 12 11 10 11 9 8 8 6 6 5 4 5 8 9 8 9 11 12 15 15 15 15 14 18 21
9 9 11 12 12 12 13 13 14 14 15 14 13 13 11 11 10 10 10 10 7 6 5 4 7 5 7 9 8 9 10 11 15 12 13 11 10 9
9 9 10 10 11 12 12 13 13 14 14 14 14 13 12 11 10 11 10 10 8 7 6 6 6 4 4 2 2 5 3 3 6 10 11 12 8 5
10 10 10 10 10 11 11 12 13 13 13 13 14 14 14 13 11 11 10 9 9 7 6 6 6 4 3 0 2 2 2 3 4 2 4 5 4 5

GFSNE_850_spd_027.txt.gz
Wind_Speed
13 12 13 13 13 12 11 11 10 9 14 14 14 13 16 16 16 20 19 19 22 23 25 25 26 29 31 32 33 34 35 34 32 31 32 33 32 32
14 12 14 14 14 14 14 13 12 14 19 17 19 18 18 19 19 21 20 23 26 29 31 33 33 33 32 34 34 35 36 37 36 34 33 33 33 33
15 16 16 18 20 20 19 20 20 20 24 25 23 23 24 24 24 26 24 26 27 28 29 29 29 27 30 34 35 36 37 38 40 38 36 35 35 34
20 21 22 22 21 20 21 21 22 23 25 29 26 27 27 27 27 27 27 26 29 27 27 27 28 29 32 31 33 35 37 39 40 42 41 39 37 36
23 23 23 22 22 21 21 23 23 23 25 28 29 27 28 27 28 28 28 29 29 28 30 33 35 36 39 37 37 38 39 39 41 42 43 41 39 38
23 23 23 23 23 23 23 23 23 24 25 27 30 30 28 26 26 27 28 27 28 25 26 26 28 29 30 31 35 37 41 42 42 42 44 45 42 40
24 24 23 23 26 29 26 24 22 23 25 28 30 28 26 24 26 26 28 26 28 25 25 25 25 24 24 25 24 25 31 37 39 40 42 45 45 43
24 24 24 25 25 24 25 27 27 25 25 26 28 29 27 25 25 27 27 26 27 24 27 30 29 30 28 27 28 21 28 28 29 32 38 43 45 46
23 24 24 24 25 23 22 26 27 26 26 27 28 29 28 27 27 27 28 28 29 27 25 29 28 31 28 24 28 32 33 33 33 35 36 37 42 45
23 23 24 25 25 25 23 23 22 22 23 25 27 28 28 28 28 28 29 31 33 30 26 31 31 31 30 32 30 31 32 33 39 42 41 39 39 41
22 22 22 23 24 24 26 26 24 24 22 25 26 30 33 34 36 39 40 37 29 28 26 29 30 31 30 31 32 32 32 33 31 33 34 34 34 36
23 22 22 23 24 23 24 23 26 26 20 23 25 26 26 26 25 27 31 35 35 37 33 26 25 23 24 24 23 22 20 21 23 27 28 31 33 31
25 25 22 22 18 24 27 29 26 24 25 21 21 18 18 20 19 19 23 25 31 36 32 28 28 20 22 22 21 18 13 14 16 18 21 27 30 31
25 23 23 26 27 25 22 19 18 19 16 15 18 18 17 15 15 17 19 22 24 26 24 22 22 21 20 19 19 17 17 20 19 19 18 19 25 30
21 24 22 19 20 15 13 14 12 8 12 14 13 14 13 13 15 15 12 15 18 21 20 22 25 24 19 20 18 17 16 17 18 16 17 17 18 25
22 15 15 15 13 12 12 11 9 8 10 11 12 11 11 12 12 12 12 11 12 13 14 15 19 23 26 28 20 20 20 17 10 12 14 15 16 19
16 13 13 13 11 12 12 11 10 9 9 10 10 10 10 9 11 11 10 8 9 10 11 14 11 13 16 20 20 21 19 18 17 15 10 11 16 13
11 12 12 13 13 13 13 13 12 13 11 10 10 10 11 10 10 9 10 10 8 8 10 9 11 9 10 13 18 20 18 17 14 15 16 13 12 12
10 11 12 13 14 15 16 15 14 15 14 12 11 11 12 10 10 9 9 9 9 9 9 10 8 10 13 15 16 18 18 16 16 14 12 14 15 14
11 11 12 13 14 14 14 15 15 15 14 13 12 11 11 9 10 11 11 10 10 8 10 6 6 9 8 7 7 6 15 14 15 16 13 13 13 14
11 11 12 13 13 13 13 13 14 15 14 13 13 12 13 11 10 11 11 9 9 9 9 9 12 9 8 8 8 5 8 9 12 13 9 13 12 15
10 11 11 12 12 12 13 12 13 14 15 14 13 14 13 13 11 12 11 11 10 9 9 9 11 9 6 4 6 7 5 7 4 8 11 10 6 4
10 10 10 10 11 11 12 13 12 13 13 14 13 14 15 14 12 12 11 10 10 9 9 10 8 8 7 4 2 5 4 3 4 4 1 7 10 9

GFSNE_850_spd_030.txt.gz
Wind_Speed
16 12 15 14 17 19 16 16 12 15 23 19 17 15 17 11 19 13 14 13 19 23 28 30 28 30 31 31 31 31 31 30 30 29 28 28 28 29
17 19 18 19 18 21 21 21 19 19 22 22 20 21 17 17 16 13 16 15 24 23 22 26 28 31 30 30 31 33 33 32 33 32 30 29 29 30
17 18 19 22 21 22 20 21 22 23 29 27 25 22 21 20 20 21 21 23 26 27 29 32 30 28 27 27 30 34 36 36 35 35 35 32 31 31
18 21 23 22 22 23 24 22 23 24 26 29 25 23 25 24 23 23 25 26 24 24 22 24 25 26 25 27 31 31 32 34 37 38 38 38 36 34
23 25 26 26 26 26 24 24 24 26 26 29 31 28 27 27 27 27 25 25 26 27 32 31 31 33 35 36 37 34 34 35 36 37 39 40 40 38
35 30 27 26 27 26 26 27 29 28 26 27 28 26 24 24 26 28 23 20 23 23 25 26 23 23 27 28 29 30 33 33 35 38 40 40 41 42
37 34 25 23 25 26 29 27 25 27 28 29 28 26 24 21 21 21 22 24 27 26 26 27 31 30 25 25 26 29 29 28 29 29 33 37 40 41
38 29 23 26 23 23 22 21 22 24 29 28 34 34 34 34 32 27 27 28 32 32 32 34 31 35 37 37 34 29 30 35 31 31 31 31 33 38
26 25 28 26 26 26 26 27 28 29 29 28 29 29 29 25 24 26 28 30 32 31 29 30 28 31 29 31 31 31 32 36 39 39 34 33 34 34
24 27 27 28 28 27 26 27 26 24 25 25 28 30 28 27 25 28 28 31 32 30 29 33 32 33 31 32 32 32 32 35 35 33 37 41 40 39
28 23 23 26 25 25 26 29 28 26 23 24 26 30 28 27 30 31 34 35 38 37 36 30 29 28 28 29 27 28 29 29 30 32 33 33 35 38
30 28 27 24 24 20 18 18 22 24 27 31 27 29 29 30 26 26 25 29 32 33 29 27 34 30 30 28 24 16 20 22 23 24 25 27 29 31
31 28 25 23 24 27 28 29 29 26 24 24 23 17 15 16 17 19 19 22 24 28 22 21 27 27 29 28 24 23 23 22 20 16 17 18 19 24
27 26 26 27 23 22 19 15 16 18 17 11 13 16 16 16 15 14 15 18 20 26 22 19 22 15 20 22 23 22 17 17 18 19 20 20 19 21
25 24 17 16 18 16 14 15 13 11 13 12 13 14 14 12 13 14 11 14 15 14 15 17 19 19 21 24 23 20 15 18 16 18 19 18 20 18
22 14 15 16 16 11 12 13 11 10 9 10 11 10 10 10 11 9 10 12 12 10 9 10 13 17 20 21 23 27 25 21 20 22 16 17 16 17
16 15 15 17 16 13 14 11 11 12 10 9 9 10 10 10 9 9 10 10 11 9 10 12 10 16 15 17 18 20 21 21 19 19 18 18 14 12
14 14 15 16 16 15 16 15 12 14 14 11 11 10 11 12 10 8 10 10 11 9 10 8 12 14 15 13 13 14 16 18 17 17 15 17 16 12
15 13 14 15 15 15 16 16 16 16 15 12 12 11 11 8 10 11 10 10 10 9 9 9 4 4 6 11 8 12 18 16 17 16 16 18 19 15
15 13 14 14 14 15 15 14 15 16 15 12 12 11 11 11 10 10 10 9 10 10 9 10 12 12 11 10 11 15 12 11 18 16 16 13 15 13
14 13 13 13 14 13 13 11 12 14 14 12 10 12 13 12 10 11 9 9 9 8 9 10 13 12 7 5 9 5 7 9 9 14 13 9 18 12
14 10 11 12 13 12 12 12 11 11 12 11 8 11 15 12 11 12 10 10 10 9 8 8 9 9 7 4 5 6 9 7 7 6 6 7 3 4
14 12 9 11 12 11 12 12 12 14 13 13 9 9 14 12 12 11 11 10 11 12 5 9 9 7 9 6 3 6 5 4 2 9 6 3 7 7

GFSNE_850_spd_033.txt.gz
Wind_Speed
15 13 14 14 16 19 18 18 18 24 28 27 25 20 19 17 18 13 10 10 21 22 26 16 22 25 27 29 29 29 29 28 27 27 27 26 25 27
18 17 17 18 18 20 21 22 24 24 28 26 27 25 19 16 17 21 18 14 9 11 9 10 19 22 22 21 25 27 27 29 30 29 29 29 27 26
18 15 19 17 19 20 20 20 21 21 27 29 25 22 22 19 17 15 18 22 15 12 12 17 22 24 24 25 24 24 26 28 30 31 31 31 30 28
19 21 21 25 31 29 25 25 26 26 26 28 26 23 24 24 22 19 16 13 19 21 18 18 18 20 20 22 23 24 25 26 26 28 29 30 31 31
23 26 31 32 32 29 28 28 29 28 29 30 32 30 27 24 29 29 28 28 25 22 20 23 28 31 29 28 29 29 29 29 29 30 30 31 31 32
30 31 32 32 28 24 25 26 27 29 32 34 33 32 34 32 28 25 24 18 16 18 20 20 24 24 23 27 30 28 27 25 27 29 29 31 33 34
35 34 33 27 20 19 23 23 23 24 25 26 29 30 30 29 29 28 27 26 27 24 26 24 24 23 22 20 23 25 27 29 32 33 31 30 32 33
35 34 31 28 23 22 23 23 21 22 23 24 26 27 30 28 25 24 26 28 33 36 34 35 32 36 36 34 32 32 32 33 34 35 35 35 33 31
29 27 27 24 23 24 26 27 26 24 24 25 23 24 25 23 24 23 20 21 24 23 26 31 29 31 29 28 27 27 26 28 28 31 34 36 34 35
28 26 27 26 23 24 25 25 25 25 24 23 24 26 24 23 24 22 24 25 28 30 29 38 32 32 27 28 28 27 28 29 29 29 31 33 34 32
27 26 31 26 23 21 24 22 20 21 20 21 23 23 25 27 23 23 23 29 30 31 25 28 29 33 32 29 22 22 24 24 26 27 28 30 32 33
28 34 28 24 20 21 21 24 29 29 26 25 26 27 27 24 23 25 26 26 26 26 19 20 20 22 26 32 28 24 18 18 17 19 22 25 27 30
34 30 26 22 22 20 19 21 21 17 18 19 19 16 10 10 11 12 15 20 24 25 23 27 21 16 21 22 23 23 22 20 19 17 16 17 17 21
25 24 21 17 18 16 16 15 15 15 15 12 11 10 11 11 11 11 13 13 13 16 14 16 21 15 14 19 23 16 16 18 16 16 17 17 19 20
20 18 14 13 20 14 10 10 10 9 8 8 8 9 10 9 7 7 6 7 10 12 11 9 13 17 19 20 23 22 22 18 17 18 18 19 21 20
19 14 15 18 15 11 11 9 10 11 10 9 8 9 8 7 6 7 7 6 8 4 5 5 7 10 15 17 18 20 20 22 22 19 20 20 22 22
16 14 17 17 16 15 15 12 11 11 12 9 8 8 8 9 6 6 6 7 8 8 5 5 5 8 13 17 19 19 18 18 17 16 18 21 20 17
16 16 16 16 16 16 16 14 14 14 13 9 9 8 8 8 8 6 7 7 8 8 8 8 7 9 8 11 13 13 15 15 14 15 16 18 18 14
15 14 15 15 15 15 15 13 13 14 12 9 9 9 9 8 8 8 7 6 6 5 6 6 9 7 6 7 9 7 11 10 14 18 18 17 18 19
15 13 14 14 15 16 14 12 12 12 12 10 9 10 10 11 10 9 7 8 7 6 6 6 9 10 6 5 6 10 10 9 10 13 18 16 17 13
17 12 11 14 15 14 13 11 12 13 12 9 7 10 9 10 11 11 8 7 7 5 6 6 7 8 7 5 4 2 8 10 9 8 10 13 13 14
16 14 11 13 13 13 13 13 13 14 13 9 6 8 7 9 10 11 10 9 8 9 7 6 4 4 6 5 1 5 8 4 6 11 8 4 2 5
14 14 13 12 12 12 12 13 13 14 13 11 7 7 7 6 7 7 9 7 8 10 3 4 4 4 4 2 2 5 6 6 5 9 10 3 3 5

GFSNE_850_spd_036.txt.gz
Wind_Speed
17 15 15 15 15 15 17 19 21 25 24 21 26 22 20 17 17 18 19 22 13 21 30 30 28 24 20 21 22 19 19 23 24 22 21 22 23 23
18 19 18 18 18 16 16 19 19 22 30 25 25 21 19 18 15 15 15 18 22 11 7 20 24 16 14 15 16 29 30 24 25 23 22 21 23 24
21 17 15 19 19 22 26 28 27 25 29 31 28 25 23 24 22 17 15 16 17 18 17 11 18 12 11 13 18 18 20 26 25 24 22 21 22 23
17 19 23 25 29 31 32 31 29 28 28 31 28 29 26 24 22 22 23 24 22 19 18 20 17 14 16 18 19 16 16 18 20 20 21 21 20 21
24 27 31 32 33 32 29 28 27 27 23 27 31 30 30 29 28 30 27 23 20 21 20 19 17 19 20 18 16 19 18 18 19 21 23 23 22 21
33 35 33 32 29 25 23 22 25 25 25 27 29 30 27 27 25 24 25 26 23 21 17 16 19 23 24 23 25 25 25 28 27 25 24 24 24 24
29 27 27 26 24 19 21 23 21 22 23 24 25 25 25 27 25 25 25 21 24 27 28 25 21 20 20 19 19 17 16 18 22 25 26 25 26 26
27 26 25 25 22 21 19 21 24 24 25 24 25 26 28 26 22 20 19 18 21 18 25 31 30 30 29 29 29 27 24 24 27 28 29 29 30 31
26 27 28 25 26 26 22 21 21 22 23 23 25 25 24 22 20 21 19 19 19 17 18 22 21 24 26 30 31 31 29 29 29 31 29 29 30 31
27 27 26 29 28 21 20 22 21 19 17 18 22 24 24 23 21 20 22 23 21 21 20 29 27 29 27 28 26 27 28 27 27 27 27 28 28 27
28 29 30 26 22 19 21 22 22 22 22 24 23 22 21 23 23 24 24 18 21 25 25 22 19 20 20 25 27 27 24 26 26 27 28 28 28 28
28 28 23 21 19 18 19 20 22 23 20 16 16 19 22 26 27 27 25 26 28 26 14 13 16 18 18 16 16 25 21 16 20 23 25 25 24 26
24 22 18 15 17 17 17 17 19 17 19 18 17 13 8 8 10 12 14 15 18 22 18 21 19 17 17 19 14 8 16 18 16 17 19 17 17 17
19 17 17 15 18 19 11 12 12 12 8 8 6 6 7 7 6 7 8 13 13 13 9 12 18 16 14 15 15 10 8 13 17 19 16 16 16 18
18 15 14 18 17 12 11 11 10 9 9 7 7 7 6 5 4 5 3 6 7 9 10 11 14 14 16 17 19 18 15 15 15 17 19 20 18 18
18 17 17 16 14 13 12 9 9 8 9 8 7 7 7 8 6 4 4 3 4 4 7 7 7 9 10 13 15 15 13 14 14 13 16 16 18 18
18 17 15 15 15 15 13 11 11 10 10 8 8 7 7 6 4 2 3 4 4 5 1 7 9 7 8 12 16 17 18 18 12 14 16 21 23 22
16 14 14 14 15 15 15 13 12 13 12 9 8 8 6 5 4 3 5 5 5 3 4 3 3 2 5 6 9 11 12 12 12 13 15 15 17 17
15 12 13 14 14 15 14 13 13 13 11 8 8 8 7 6 5 5 5 4 2 1 2 4 5 5 5 6 8 9 9 11 10 9 13 19 20 19
16 14 12 14 15 15 15 14 14 13 10 7 7 7 6 8 6 6 5 5 3 3 4 5 5 7 7 6 7 8 8 8 11 11 10 15 18 16
15 15 13 13 13 13 13 12 13 14 11 6 5 7 6 6 6 5 5 5 6 7 6 6 5 5 6 7 7 5 6 9 7 8 9 8 11 14
15 14 13 13 13 12 12 12 12 13 12 8 6 6 6 5 5 6 7 7 7 9 8 6 6 6 5 5 4 4 4 5 5 8 10 5 3 3
15 13 13 12 12 12 11 12 12 12 12 10 9 8 8 5 5 6 7 9 8 8 4 2 3 1 2 2 3 3 3 4 4 5 9 5 3 6

GFSNE_850_spd_039.txt.gz
Wind_Speed
18 18 19 20 18 16 18 13 16 21 26 28 28 24 22 22 23 21 19 16 19 21 19 16 21 31 36 28 26 22 20 21 21 20 20 21 21 20
17 20 22 22 19 18 22 22 19 26 31 30 33 30 26 24 23 24 21 17 16 20 21 14 15 28 28 29 26 23 21 17 18 18 19 21 21 20
21 20 17 18 21 25 29 30 30 30 32 36 35 33 27 24 22 23 22 21 23 20 18 23 20 14 23 21 22 18 15 16 14 14 13 16 20 22
18 21 24 29 32 33 33 32 31 30 29 33 31 27 22 23 25 24 24 24 22 21 21 20 22 22 10 16 16 19 14 11 10 13 14 13 14 19
25 28 31 31 30 29 27 27 26 25 24 26 29 25 24 22 26 24 23 24 21 22 18 17 16 17 15 15 15 16 16 16 17 15 13 14 16 15
30 28 27 27 27 26 25 23 24 23 22 23 25 24 23 22 24 24 24 23 24 22 24 21 17 15 16 13 17 19 18 17 17 19 19 20 19 18
26 25 25 25 24 23 22 24 24 26 29 28 27 26 24 21 21 22 23 26 27 23 22 25 25 21 19 17 14 12 15 19 23 26 26 23 21 20
26 25 26 26 24 23 25 27 25 24 25 26 28 28 27 23 20 21 21 21 22 16 14 14 24 30 27 24 22 21 20 18 18 21 22 20 21 21
26 27 27 26 26 28 26 21 19 20 23 24 27 27 28 26 22 21 20 19 20 18 17 21 17 20 22 26 28 29 29 29 28 27 26 25 26 26
26 27 27 26 23 20 20 22 23 22 20 20 21 22 22 20 21 21 20 20 20 19 19 23 20 21 19 22 25 28 29 30 30 30 30 29 30 29
25 24 21 20 18 16 18 22 21 20 19 21 23 24 25 24 21 15 18 18 21 21 19 19 23 18 13 14 16 23 29 30 28 27 28 27 28 27
24 19 16 16 15 17 17 22 23 20 20 18 19 19 17 19 23 27 27 28 27 28 21 15 12 9 11 13 6 10 20 25 24 22 23 25 25 26
21 19 15 15 17 21 19 14 16 18 18 17 14 12 10 8 11 15 18 20 20 20 18 17 19 15 13 15 14 9 9 18 20 17 17 19 19 21
21 18 17 19 20 18 15 16 15 15 14 12 12 8 8 7 5 5 9 10 13 15 14 11 13 12 13 13 14 7 5 10 16 19 18 19 20 21
20 19 19 19 17 15 14 11 11 11 11 11 10 10 9 10 8 6 4 8 11 9 9 11 14 13 13 14 14 11 12 7 11 13 15 19 19 19
21 19 18 16 14 13 11 9 10 11 10 9 9 9 9 8 5 5 3 2 1 5 7 7 7 9 13 11 11 12 10 6 4 9 15 19 21 22
20 17 16 15 14 14 13 11 12 13 11 10 10 10 8 5 3 2 2 3 3 3 2 5 10 9 6 7 10 13 11 12 13 11 14 18 23 23
19 17 16 15 15 16 15 14 13 14 12 10 9 9 7 5 5 4 4 4 3 3 2 2 2 1 4 6 9 12 10 7 8 10 14 16 17 17
17 17 15 15 15 15 15 15 16 15 11 7 8 8 8 5 4 4 4 3 1 2 0 4 4 3 5 7 8 7 7 8 8 6 8 13 17 15
16 16 15 14 14 14 15 15 15 14 11 7 7 8 7 7 5 6 6 5 4 3 4 4 5 6 6 6 7 8 9 7 8 8 9 10 15 17
15 14 14 14 13 13 13 13 14 14 14 9 8 8 8 7 6 7 7 8 8 8 8 7 6 6 5 7 7 6 5 7 7 7 9 9 8 9
14 13 13 13 12 12 12 13 13 12 12 10 10 9 9 8 8 8 9 10 11 10 9 4 4 5 5 7 4 3 4 6 6 5 9 8 5 4
13 12 12 12 12 11 11 12 13 13 12 11 10 10 10 8 8 9 9 10 12 8 7 3 4 3 3 4 3 3 4 4 4 4 6 8 6 6

GFSNE_850_spd_042.txt.gz
Wind_Speed
17 19 21 22 24 24 21 20 17 20 32 33 33 31 32 29 27 25 26 24 20 21 21 20 19 21 25 18 22 33 24 25 25 25 24 23 22 22
20 21 22 22 21 19 21 24 25 29 36 37 41 39 34 29 25 22 23 24 22 22 23 22 19 17 20 20 25 25 24 22 21 20 19 19 21 21
18 19 18 20 24 28 30 31 33 31 36 45 41 38 35 29 20 22 24 24 23 22 23 23 21 19 18 23 16 30 39 30 34 27 21 18 20 20
19 21 25 28 31 29 28 28 28 27 29 36 37 34 30 24 20 25 26 24 23 20 21 23 20 20 19 19 21 16 19 19 27 30 35 22 18 20
23 28 31 29 29 28 27 27 26 24 23 26 31 31 29 23 21 23 25 25 22 21 20 21 19 18 16 21 12 14 15 17 17 16 20 30 20 15
29 30 28 27 28 28 27 28 26 25 26 27 29 31 29 26 22 23 24 23 24 22 20 20 23 19 15 15 21 13 13 17 19 19 17 19 13 13
29 27 27 28 27 26 26 26 28 30 28 27 30 28 27 27 24 22 23 22 25 25 25 21 21 26 22 17 17 17 20 17 16 15 14 16 17 18
29 29 29 30 29 26 27 29 28 26 25 26 27 28 29 28 25 21 22 23 26 22 17 14 14 19 27 24 19 16 17 19 21 22 23 24 22 21
28 29 30 28 26 25 23 20 20 21 22 24 26 24 25 22 22 23 23 23 24 20 19 22 18 18 18 24 26 26 24 21 20 20 22 22 22 23
26 26 26 24 21 19 18 21 22 20 20 20 23 26 25 25 25 23 22 23 23 23 18 24 19 16 13 18 22 25 29 30 30 28 26 25 25 25
24 23 21 20 17 17 20 22 25 23 18 19 20 21 21 21 22 24 24 24 24 21 17 20 20 17 17 13 14 18 23 28 32 33 33 32 29 29
25 22 19 18 16 19 22 22 21 21 22 21 20 17 17 18 19 21 23 27 23 19 18 17 15 12 3 7 9 6 9 17 25 29 29 29 29 30
25 24 20 18 19 20 19 18 19 22 20 18 18 15 10 9 8 11 16 22 25 28 23 15 14 12 10 9 9 8 8 10 14 22 25 23 24 28
25 23 21 19 19 18 18 16 16 16 16 15 15 13 12 12 11 10 9 11 12 13 13 13 11 9 8 8 10 5 7 6 8 18 19 17 18 20
23 22 20 19 18 17 16 13 14 15 15 13 13 12 12 13 13 11 8 6 13 13 11 12 14 13 11 12 12 9 8 5 9 14 17 18 18 20
22 20 19 18 16 14 14 13 13 14 15 13 12 13 11 9 8 6 6 5 4 1 2 5 8 10 12 9 9 6 6 3 5 9 15 18 19 22
20 18 17 16 16 15 15 14 14 14 12 10 11 12 9 7 7 6 5 5 5 3 1 1 4 6 3 5 7 7 7 8 7 10 14 15 17 21
19 17 17 16 16 16 17 17 16 16 13 10 11 11 10 9 8 7 7 6 5 4 1 1 1 2 3 5 8 9 9 9 5 8 9 10 12 13
17 15 16 16 15 15 15 16 17 17 15 10 10 11 10 9 8 8 7 6 4 3 2 3 4 3 3 3 6 4 5 6 6 7 8 9 10 9
15 14 14 15 14 14 14 15 15 15 14 11 10 10 9 9 8 8 8 7 7 6 5 4 4 5 4 3 4 6 5 4 4 5 6 7 9 11
15 13 13 13 13 13 13 14 15 15 15 13 11 11 10 8 7 8 8 9 10 9 7 6 6 5 3 4 6 4 2 4 5 5 6 7 5 5
14 13 12 12 12 12 12 13 13 13 13 12 11 11 10 10 9 9 9 9 11 9 8 4 2 2 2 3 4 2 2 4 4 3 5 7 5 3
14 14 12 11 11 11 11 12 12 14 14 13 12 12 11 10 9 10 9 10 10 7 6 2 2 1 0 1 1 3 1 2 3 2 3 5 6 5

GFSNE_850_spd_045.txt.gz
Wind_Speed
17 19 20 23 24 23 21 16 18 26 34 27 28 26 25 24 25 27 26 28 28 27 26 26 26 24 22 21 17 18 24 26 28 47 28 26 26 25
18 20 20 21 20 21 22 24 21 26 39 31 31 29 28 27 25 25 25 27 28 28 26 26 26 25 23 19 20 24 9 27 30 27 33 30 30 27
18 19 19 21 25 27 28 24 22 22 31 33 29 27 27 27 25 23 21 22 22 25 24 24 25 25 22 22 18 23 25 22 25 32 25 27 26 26
18 20 23 27 28 24 21 21 20 21 25 30 29 27 25 23 24 23 21 22 23 23 23 23 23 24 22 20 20 17 23 32 20 28 33 28 26 23
20 24 29 28 23 21 21 22 22 23 24 25 30 26 26 23 22 20 21 22 23 24 24 23 22 23 21 20 19 15 18 21 21 28 30 36 36 33
24 28 29 25 23 23 23 23 23 23 23 26 28 28 24 22 21 21 21 20 21 20 20 22 22 22 24 20 18 14 14 14 18 18 26 29 33 34
28 28 27 27 29 28 23 22 22 24 25 25 26 25 22 20 20 19 20 19 20 20 21 20 19 19 22 24 20 16 14 15 10 16 20 19 28 34
27 27 28 29 25 25 25 22 20 20 21 22 24 24 24 23 20 19 19 18 20 15 17 16 12 13 13 15 21 19 17 16 17 14 12 15 17 17
25 27 27 23 22 18 18 16 18 20 21 23 25 24 24 23 21 20 18 18 19 17 17 19 15 16 15 15 23 25 21 20 20 20 21 21 20 21
24 24 23 20 18 17 17 21 19 21 20 20 21 24 25 24 21 22 22 22 20 19 18 20 14 15 12 15 18 23 28 26 22 21 20 21 22 22
23 21 21 18 18 16 20 22 20 19 17 20 22 21 21 22 22 22 22 18 18 18 15 16 13 13 13 14 18 20 22 27 29 28 26 24 21 20
20 20 20 18 18 19 20 20 20 19 21 20 18 17 17 14 13 17 19 20 18 15 12 13 11 10 6 6 9 12 14 18 23 28 31 31 30 29
19 20 18 22 19 18 17 16 18 21 20 18 16 15 13 13 12 11 11 15 19 20 14 12 11 8 8 3 5 9 8 10 12 20 28 31 32 31
20 20 22 21 20 19 17 17 17 17 17 16 14 13 13 13 13 14 12 12 13 16 15 13 15 11 10 6 5 5 7 7 8 10 19 22 27 27
19 21 20 19 19 17 16 16 15 15 16 14 13 13 14 13 12 11 9 9 10 10 9 12 13 13 11 9 6 5 6 6 7 6 12 16 19 21
19 20 19 17 17 16 16 15 15 16 15 13 13 13 12 9 9 9 8 8 7 5 1 4 7 8 12 9 7 5 5 4 5 7 12 16 18 20
19 18 17 16 16 16 15 15 16 16 14 10 11 12 12 11 10 10 9 7 6 5 4 2 3 5 3 6 4 4 4 5 6 9 11 13 17 19
18 17 16 16 16 16 16 16 16 17 16 12 11 12 12 12 11 10 8 8 6 6 4 3 3 3 3 4 6 5 5 6 7 3 4 8 11 13
17 16 15 15 15 15 15 15 16 16 16 14 13 12 11 10 10 10 9 8 6 6 5 3 3 1 1 1 4 3 6 6 5 5 4 4 5 5
17 16 15 14 13 13 14 14 14 15 15 14 13 13 12 11 9 9 9 9 8 7 6 5 3 2 1 1 1 3 4 4 4 4 4 5 6 7
17 16 15 13 13 12 13 13 14 14 15 14 13 13 12 11 9 9 8 8 9 7 6 5 5 4 3 2 3 2 2 3 2 1 1 1 1 1
17 16 15 14 13 12 12 12 12 13 13 13 12 12 12 11 10 9 9 8 8 6 5 2 0 2 3 3 2 3 2 1 1 1 2 3 2 1
17 16 15 14 13 12 11 11 11 11 12 13 12 11 11 10 10 10 9 9 8 6 5 3 2 3 3 2 2 5 3 2 2 1 0 2 3 3

GFSNE_850_spd_048.txt.gz
Wind_Speed
18 15 14 16 17 19 20 21 23 30 31 27 29 26 27 27 28 28 30 31 31 31 32 28 29 26 25 25 24 22 22 22 31 30 31 37 38 34
15 14 15 16 18 20 21 23 24 29 35 31 31 30 29 29 29 29 30 31 31 28 28 28 30 27 25 23 23 21 22 24 21 29 28 30 38 28
14 14 14 17 20 22 23 24 24 26 31 33 31 30 30 30 29 26 24 27 27 27 27 27 28 24 24 23 22 21 21 23 22 25 31 32 38 39
12 13 17 20 22 22 22 23 25 27 30 33 33 31 29 28 29 28 27 25 25 25 26 29 31 25 24 24 22 21 20 21 19 19 24 32 16 38
12 15 20 21 22 22 23 25 26 27 29 30 33 28 29 27 27 25 23 23 24 25 28 30 25 22 25 24 23 21 18 19 18 23 18 27 20 29
14 18 20 20 21 21 24 24 25 26 27 26 27 28 26 23 24 25 24 21 21 20 22 22 23 24 24 23 22 22 17 16 15 17 22 26 24 25
17 17 17 20 27 24 21 21 23 24 24 24 25 25 23 22 22 22 23 23 22 20 21 20 21 20 19 19 18 20 19 17 15 15 16 23 27 31
16 16 17 19 17 23 21 25 19 17 19 21 23 24 25 24 22 23 21 22 22 17 17 17 17 16 16 15 15 17 19 19 17 15 13 18 19 28
14 16 17 16 20 19 20 20 20 22 22 24 26 26 26 23 22 23 22 23 22 18 17 19 16 17 16 15 20 23 24 20 18 16 16 12 17 15
14 16 16 17 18 22 20 20 21 20 19 20 21 23 24 24 24 26 25 24 22 21 19 21 17 17 15 16 18 21 19 23 20 19 17 15 16 16
15 15 17 17 19 22 19 21 20 19 18 20 23 24 22 20 20 21 20 21 21 19 16 18 14 14 14 15 14 17 17 23 27 23 20 19 18 18
14 15 17 23 26 19 18 19 19 18 21 21 19 18 17 16 18 16 14 17 18 18 16 12 11 12 12 13 14 14 16 18 21 29 28 24 21 19
14 15 15 22 22 21 18 15 18 20 19 18 17 16 14 13 14 15 15 17 17 17 13 12 11 11 10 8 5 7 8 10 12 17 25 31 31 28
14 15 17 21 20 19 15 17 18 16 15 16 15 14 14 14 14 15 15 14 16 17 14 15 16 13 10 9 8 7 7 9 9 10 12 19 29 33
14 16 19 19 18 16 15 16 14 13 13 13 14 14 15 14 13 13 11 12 14 11 9 13 15 12 10 9 6 6 7 7 8 7 8 14 16 21
13 17 17 16 16 16 13 12 11 13 13 12 13 14 14 13 12 12 12 11 11 6 1 5 9 9 11 12 10 8 6 6 7 7 6 13 16 16
18 15 12 12 11 10 10 11 11 12 12 11 12 13 13 13 13 12 11 10 11 9 7 4 2 5 8 10 9 7 5 7 6 5 6 6 9 12
16 12 13 12 12 11 11 11 10 12 14 13 11 12 12 12 13 12 11 10 9 9 8 5 4 3 5 6 7 2 4 5 4 5 7 11 11 11
13 13 13 12 12 10 10 10 10 12 14 13 11 11 12 11 11 11 10 9 9 8 8 7 6 5 4 4 1 4 3 4 5 3 3 4 6 6
16 13 13 12 11 10 10 10 11 12 12 13 12 12 11 10 10 10 10 10 9 8 7 6 5 3 2 2 1 4 5 5 4 3 1 3 3 8
15 14 13 12 12 11 11 12 12 11 12 13 12 11 11 10 9 9 9 9 10 7 7 6 7 7 3 1 1 1 2 5 4 5 3 2 3 1
16 15 14 13 12 11 11 11 10 9 10 10 11 10 10 9 9 9 9 9 8 8 8 7 5 0 1 4 2 2 2 2 2 3 2 3 8 4
18 18 15 15 12 11 11 11 10 10 10 10 10 9 10 8 9 8 8 8 8 7 7 6 5 1 1 1 1 5 2 2 3 3 0 1 2 2

GFSNE_850_spd_051.txt.gz
Wind_Speed
18 17 16 12 12 15 17 19 23 28 31 31 31 28 28 28 28 30 30 32 34 36 38 35 31 30 30 30 28 28 29 28 27 26 27 33 36 37
17 17 12 14 14 16 19 21 24 28 33 32 33 31 31 31 31 30 32 33 33 32 32 32 31 29 28 27 27 26 27 27 28 26 27 27 36 35
21 15 12 13 15 18 20 24 26 27 31 33 34 33 32 32 32 30 30 30 32 31 31 31 29 29 28 29 30 27 25 26 27 26 25 24 28 31
13 11 11 13 17 20 22 23 26 27 31 34 34 33 33 32 31 31 30 28 29 29 30 31 25 26 29 32 34 29 25 25 24 26 21 23 27 28
10 11 14 17 20 21 22 23 25 27 30 32 35 30 31 29 29 27 27 27 25 26 27 27 31 28 26 27 25 27 25 24 22 24 21 22 17 23
10 13 16 19 19 18 21 22 21 23 25 28 30 29 26 25 25 26 25 23 24 21 23 24 25 25 26 25 21 21 24 23 20 19 18 19 23 10
14 16 16 18 25 25 22 21 20 21 23 23 24 23 23 23 24 26 27 26 27 23 25 25 24 24 22 22 19 19 17 21 20 17 14 16 18 20
15 15 16 17 16 21 20 22 27 24 21 23 23 26 26 27 26 27 27 26 28 23 22 23 20 19 18 20 18 13 14 17 18 17 15 14 14 19
14 15 16 15 18 18 19 23 23 23 24 24 27 25 26 24 24 26 26 28 28 28 24 27 22 22 20 18 18 17 19 20 20 15 15 14 11 14
13 14 15 15 17 25 27 22 21 21 20 21 23 24 25 27 27 26 26 29 30 26 21 27 25 24 21 20 20 22 23 20 24 21 15 13 13 12
12 13 14 16 18 24 27 21 21 20 18 20 22 26 25 23 20 20 24 25 24 22 21 22 23 22 18 19 18 17 17 17 19 22 17 14 12 12
11 12 16 21 25 27 24 19 19 18 21 22 19 19 19 19 18 17 21 22 18 21 15 15 16 14 17 18 18 17 18 17 18 23 22 18 15 12
12 11 11 22 24 22 20 18 17 24 20 18 19 18 17 16 15 16 18 20 22 24 20 17 15 14 13 16 6 10 12 11 12 17 23 25 21 17
13 12 15 20 20 18 16 16 18 15 16 17 16 16 15 16 16 15 15 17 18 22 24 15 15 13 14 15 11 5 6 6 6 8 10 18 26 25
13 14 18 20 18 16 14 16 17 14 15 15 15 15 15 16 16 16 15 16 19 22 14 12 15 10 12 12 15 6 5 6 8 10 12 12 14 25
13 14 20 14 16 17 15 12 13 14 15 14 15 16 15 15 15 14 16 17 18 11 3 4 9 11 12 11 12 10 8 6 6 8 7 8 13 13
19 19 13 12 13 12 12 12 12 12 13 13 13 14 15 15 14 13 14 15 15 15 14 11 8 4 7 9 11 11 9 6 7 8 3 4 10 9
17 13 13 13 13 12 12 12 11 12 12 13 12 12 13 14 14 13 13 13 13 12 12 12 11 11 9 9 8 9 4 8 7 4 7 6 7 9
18 12 15 14 13 12 11 11 12 12 15 12 12 12 12 12 12 13 12 12 12 12 12 11 11 11 14 10 1 2 5 5 3 1 1 6 7 8
17 15 15 15 13 11 11 11 12 11 11 11 11 11 12 11 11 11 11 12 12 12 11 9 9 7 6 5 3 5 4 3 5 3 3 3 6 6
18 18 17 17 15 12 13 14 13 11 12 11 10 11 11 10 9 10 10 11 11 10 10 10 11 12 6 4 4 3 1 2 3 6 5 6 4 2
22 20 19 19 17 15 15 15 12 11 10 10 10 9 9 9 10 10 9 10 10 10 11 9 8 4 3 4 9 2 1 2 2 2 2 5 7 6
22 21 20 20 19 18 16 13 13 11 10 10 9 8 9 8 8 10 9 9 9 9 9 10 8 6 5 3 4 7 3 3 4 3 3 2 3 4

GFSNE_850_spd_054.txt.gz
Wind_Speed
24 21 21 18 16 12 14 16 18 26 30 28 28 27 25 25 27 27 30 30 31 33 34 35 37 34 31 29 27 26 28 29 29 26 29 29 29 29
21 19 20 15 15 14 16 17 19 24 33 29 31 30 30 32 35 32 32 32 33 34 34 33 31 32 31 30 29 27 28 27 30 30 30 29 30 26
19 22 22 14 14 13 16 20 23 24 29 31 30 30 28 29 30 33 40 40 38 34 31 34 32 34 35 29 27 28 30 30 30 32 29 29 29 26
24 17 16 12 13 18 19 19 20 22 25 32 34 34 30 28 30 33 35 33 31 32 31 29 31 31 30 30 28 30 31 33 31 31 28 27 27 29
10 12 13 17 17 17 20 24 28 31 29 27 33 33 29 28 28 30 28 27 27 25 24 25 25 26 27 27 30 28 24 27 27 28 26 24 25 25
12 12 14 15 19 21 25 30 26 25 25 25 29 30 28 29 26 26 27 27 27 26 28 29 28 28 28 27 24 25 27 22 21 23 24 22 21 21
13 13 14 17 22 24 22 25 23 26 28 31 26 28 30 28 28 28 29 32 32 27 27 26 27 26 26 27 24 26 25 25 22 21 20 19 18 17
14 16 16 16 18 20 20 22 25 28 29 30 29 30 29 29 27 27 28 31 34 32 26 34 29 28 25 24 22 22 20 18 19 17 17 16 17 18
13 16 16 14 20 22 25 28 28 27 21 24 27 27 26 25 29 31 34 33 33 30 29 33 26 27 25 25 23 23 21 15 16 18 17 15 15 14
15 18 17 15 22 25 26 29 30 25 19 19 23 25 26 28 29 25 26 28 27 26 26 29 26 28 27 26 24 22 24 26 22 20 20 18 16 13
20 19 13 17 23 24 27 30 28 24 13 18 25 24 20 20 20 22 25 25 28 30 23 22 24 24 21 24 19 20 20 22 21 20 20 18 14 12
17 10 16 17 21 24 28 27 25 20 23 21 17 17 18 19 17 18 19 20 22 30 23 25 24 21 17 16 14 18 21 19 16 16 15 19 14 10
16 16 13 20 23 25 24 21 19 21 18 18 22 18 19 18 18 17 17 19 23 26 25 23 28 26 16 21 21 20 11 14 14 14 15 21 17 13
18 18 14 20 21 18 17 15 15 16 16 20 19 18 21 19 18 17 17 17 18 23 28 26 26 20 16 19 21 20 5 7 6 6 10 13 21 18
18 17 15 15 18 15 15 15 17 18 18 23 18 20 18 19 19 18 17 16 16 17 17 10 11 12 12 15 16 17 13 3 5 5 6 7 10 20
18 17 18 21 11 14 15 14 16 17 18 20 21 19 16 19 20 17 17 18 17 17 19 14 9 11 13 12 12 15 12 7 5 6 8 10 11 10
23 25 25 16 14 16 15 14 15 15 17 18 22 18 17 18 18 15 15 17 16 16 15 15 15 17 8 10 12 11 13 8 6 5 2 3 6 9
24 25 21 15 14 17 17 14 14 15 17 21 15 17 17 18 15 13 16 15 17 16 13 14 16 16 15 10 9 11 7 7 13 7 4 4 5 5
23 22 19 13 16 16 17 14 14 16 20 16 17 15 16 17 13 12 15 15 16 15 10 11 14 10 13 15 5 6 7 7 4 2 2 9 4 7
23 23 20 16 17 17 16 14 17 20 19 15 18 10 14 17 14 12 12 14 14 13 14 10 12 12 12 10 8 6 5 3 1 0 2 5 4 2
22 23 22 19 19 20 18 18 20 21 17 12 12 12 12 14 12 14 11 10 10 13 12 12 9 8 5 4 6 8 3 2 1 4 3 6 3 2
20 20 22 21 22 22 21 21 21 19 12 12 14 16 10 14 8 11 13 11 11 12 12 8 7 8 9 4 8 5 2 3 1 2 2 6 3 5
23 22 23 22 20 22 20 21 20 18 16 15 15 13 11 11 7 8 10 14 9 11 10 7 7 10 6 5 5 2 5 7 6 5 5 4 1 2

GFSNE_850_spd_057.txt.gz
Wind_Speed
23 24 20 19 17 17 16 14 14 20 28 29 31 24 22 26 27 26 30 34 36 37 37 36 36 30 28 27 28 28 28 28 26 25 25 26 27 29
22 23 20 20 16 17 18 19 14 18 28 26 24 23 24 25 24 26 28 32 35 38 42 38 30 28 30 33 35 31 29 30 26 26 26 26 27 28
23 22 22 18 16 17 17 16 17 19 23 31 32 34 36 35 30 27 31 35 36 36 30 28 28 27 28 29 29 28 29 26 24 27 28 30 28 29
20 19 13 14 13 14 16 17 20 24 28 35 39 38 36 32 28 29 33 33 28 26 24 23 23 21 23 23 24 25 26 28 31 29 28 30 29 29
11 12 13 13 16 18 19 22 26 29 32 30 31 32 34 28 27 25 24 25 23 24 24 25 27 27 29 29 26 25 23 21 21 25 27 28 26 27
13 13 13 14 15 18 23 26 27 28 28 29 34 36 32 27 25 26 29 26 28 27 27 26 25 25 26 26 27 26 25 25 25 25 25 24 24 24
16 14 13 17 20 23 24 24 27 26 29 32 35 34 31 28 28 27 24 27 32 33 34 31 28 29 28 25 23 22 22 23 25 25 25 22 22 20
16 17 17 19 22 22 23 24 24 28 30 31 28 28 28 25 20 30 34 36 39 32 25 26 23 26 24 22 22 23 22 21 21 23 18 18 16 18
13 15 18 20 22 22 24 26 27 26 27 24 22 23 27 27 29 30 31 27 28 28 26 30 25 24 23 21 21 22 21 22 21 18 16 17 15 17
16 19 21 22 24 23 25 25 26 27 24 17 17 23 28 27 20 22 25 27 27 24 22 27 27 25 25 20 19 19 18 20 23 23 22 19 17 19
20 21 21 22 21 22 23 26 27 24 21 17 17 15 15 14 16 19 21 23 26 27 25 22 27 30 24 23 14 15 13 17 20 20 20 20 19 19
23 21 18 17 19 21 23 25 26 21 19 16 15 17 12 14 15 16 18 21 24 28 24 26 28 25 24 24 15 20 24 20 21 16 16 16 16 17
21 18 18 20 21 21 23 23 18 17 16 17 19 21 17 17 15 15 15 17 20 23 24 25 33 28 23 26 23 21 24 16 12 13 15 17 17 17
21 18 17 19 20 20 19 14 13 15 17 19 20 22 24 20 17 17 16 16 16 20 24 20 19 18 21 19 20 20 19 8 9 9 10 12 16 18
22 19 17 17 14 19 14 13 14 15 18 19 20 24 26 19 19 18 16 13 13 12 13 17 17 14 13 15 18 18 19 17 2 1 4 5 9 20
23 19 18 20 22 22 16 15 16 16 17 18 21 23 24 18 19 16 15 14 17 15 9 12 13 14 13 10 11 15 12 11 6 1 5 7 8 10
21 19 22 24 26 21 16 16 16 16 17 19 21 25 20 20 19 12 12 14 15 19 17 13 11 12 13 12 10 11 16 10 2 4 3 6 10 11
28 28 27 25 24 19 15 18 16 16 17 19 22 22 20 18 17 12 12 13 16 16 14 12 15 11 13 6 7 8 15 7 6 5 1 5 5 4
26 28 27 24 21 16 16 17 18 16 18 21 24 20 18 14 16 13 14 14 14 13 11 12 12 13 13 11 3 10 7 6 4 0 4 4 11 6
24 27 27 23 18 16 16 18 17 19 20 22 23 14 11 14 14 13 13 14 14 14 14 10 8 8 9 9 8 10 6 3 2 2 2 3 6 5
24 24 23 23 21 19 18 20 18 19 19 21 16 14 12 15 13 12 10 11 12 13 15 11 8 7 5 4 3 10 3 2 1 2 1 6 4 3
25 24 22 21 20 20 19 19 20 20 21 21 17 15 15 16 12 9 9 12 14 14 14 7 7 7 11 4 4 1 2 3 4 3 2 3 7 4
25 25 23 22 21 22 22 22 21 20 20 19 16 16 17 12 10 7 7 11 13 11 10 6 5 10 9 4 2 3 7 8 6 6 6 6 3 5

GFSNE_850_spd_060.txt.gz
Wind_Speed
24 25 26 24 22 22 20 19 20 21 28 18 17 20 19 17 21 24 26 27 30 31 32 33 36 35 28 28 30 31 31 31 29 29 30 30 30 28
28 29 25 25 22 19 18 16 18 19 20 21 25 27 29 31 33 34 33 31 32 34 36 38 37 29 25 26 28 30 30 29 28 29 30 31 30 29
32 26 22 20 17 18 21 22 20 19 21 29 31 35 37 35 33 31 30 31 32 33 32 29 24 22 21 22 23 25 27 26 26 27 30 29 29 30
26 17 14 13 13 13 16 18 19 20 25 33 35 34 31 31 32 29 26 24 23 23 22 23 23 23 24 25 27 28 27 25 22 25 28 29 31 32
21 18 16 16 16 17 19 19 21 24 27 28 32 32 34 33 31 24 21 22 22 22 23 25 25 25 25 24 25 27 28 28 28 25 26 27 28 32
22 20 18 19 19 18 19 22 24 25 26 27 31 34 34 31 25 23 24 20 22 25 29 30 28 28 27 26 27 26 25 26 26 27 28 29 30 30
25 25 23 15 18 22 22 22 23 25 26 29 31 33 31 28 23 24 26 33 33 30 23 19 21 17 18 19 22 24 24 24 24 23 23 26 27 26
23 23 15 17 21 22 22 23 24 24 27 29 31 29 27 24 25 28 30 26 30 24 29 23 18 18 16 15 17 19 20 22 24 22 21 20 21 21
16 15 13 18 21 23 23 24 23 24 25 28 27 24 26 26 28 24 23 26 27 26 24 26 19 24 20 20 17 17 19 21 24 24 21 19 19 18
17 16 17 20 22 24 24 23 23 22 24 23 21 22 21 20 21 20 22 24 24 24 23 30 25 26 24 21 17 10 13 18 18 21 24 24 24 21
17 18 19 23 22 21 21 22 23 23 21 17 16 14 17 17 15 18 20 22 26 26 20 20 24 28 28 23 15 12 19 15 17 23 25 24 23 23
18 19 20 21 19 19 21 22 23 20 17 15 13 12 14 15 17 15 17 20 22 25 20 26 29 29 24 24 16 22 19 19 25 26 25 22 20 19
20 20 20 19 19 20 20 21 20 19 15 15 15 16 16 19 19 15 16 17 20 23 21 22 29 21 20 24 24 20 17 23 26 11 13 17 16 16
21 20 20 20 19 17 16 17 18 18 17 16 18 18 20 23 24 20 18 16 15 19 21 18 20 18 20 22 22 19 19 21 11 6 11 14 15 17
25 22 20 22 21 16 15 18 18 17 17 17 18 20 21 25 23 20 16 12 13 13 13 14 16 17 15 15 19 19 19 15 5 3 5 6 10 14
25 24 23 23 23 21 21 21 17 16 17 17 19 20 22 25 22 17 15 15 17 15 9 9 12 14 14 13 13 15 15 14 11 3 1 4 4 9
24 24 24 25 25 24 23 22 19 16 16 17 18 20 22 23 20 15 13 15 15 18 17 9 5 7 11 9 9 7 19 5 2 2 3 6 7 9
24 25 24 27 28 25 23 22 18 15 15 17 18 19 23 21 18 14 12 13 14 14 13 11 10 8 7 5 7 9 11 9 3 1 3 4 3 4
26 28 27 24 25 24 22 19 17 14 15 16 17 19 22 19 15 13 13 13 13 13 12 10 10 11 11 10 4 8 6 7 7 6 4 6 4 6
26 28 30 26 21 22 20 18 17 17 18 16 17 18 19 16 14 13 12 12 13 15 15 10 8 8 10 10 8 8 6 3 3 4 3 3 4 4
28 28 27 26 22 19 20 19 17 18 19 17 17 19 18 15 13 13 12 11 12 14 15 9 6 8 8 6 5 6 2 4 3 4 2 2 2 2
27 27 24 24 23 20 18 18 18 17 17 17 17 18 16 14 13 13 12 12 11 13 13 8 7 4 7 3 4 3 1 1 3 3 2 1 5 2
22 24 23 22 22 21 19 20 20 20 18 17 16 16 14 12 12 12 11 10 11 11 10 5 4 4 4 4 4 3 7 4 3 4 5 5 6 5

GFSNE_850_spd_063.txt.gz
Wind_Speed
20 23 28 29 23 21 23 24 21 23 25 17 13 12 20 21 24 28 32 33 34 36 36 38 36 33 30 31 30 31 31 31 30 31 32 34 33 31
25 28 32 27 20 20 19 19 21 23 19 20 22 21 26 30 31 30 29 30 30 31 33 35 37 37 32 27 26 27 27 28 28 29 30 31 32 32
26 31 30 19 15 15 16 19 20 20 22 24 25 29 31 29 29 29 29 29 29 27 26 26 25 25 25 25 24 25 25 25 25 26 27 29 29 31
28 30 22 19 17 17 18 19 20 20 20 26 31 31 29 28 30 29 27 24 22 23 22 22 25 26 26 28 29 30 30 31 31 29 27 27 27 30
29 24 22 22 21 20 20 22 21 20 22 28 30 29 30 30 31 28 24 22 20 20 21 24 26 27 28 29 30 29 29 30 30 30 30 30 30 30
26 23 23 25 26 24 19 20 22 23 24 26 27 30 30 30 28 26 26 25 28 25 22 18 16 18 21 22 24 27 29 31 30 29 29 28 30 32
24 25 26 24 26 22 20 21 22 23 24 25 27 29 30 29 25 25 28 28 24 22 18 17 20 15 13 13 16 17 22 25 28 29 29 28 28 28
28 27 25 19 17 17 19 21 23 22 23 25 26 28 28 25 25 25 24 25 28 23 26 26 22 18 17 17 16 18 19 21 23 26 28 28 26 26
30 24 19 17 16 17 21 23 23 22 23 25 27 26 25 23 22 25 24 22 25 27 24 31 25 22 18 20 19 17 19 19 20 24 27 28 28 27
25 20 19 17 18 20 23 24 22 21 22 24 25 22 21 19 21 21 23 26 29 28 22 29 21 23 22 21 20 16 16 18 19 18 22 25 28 29
20 21 19 21 19 20 21 20 21 21 22 22 19 18 17 17 16 21 23 25 29 29 22 18 25 29 27 19 16 12 13 18 18 20 23 26 27 28
21 23 23 22 21 19 20 20 22 20 20 17 16 15 15 16 16 19 20 23 25 28 14 24 26 24 27 22 26 18 16 17 19 23 29 32 33 29
24 20 20 21 22 21 20 21 20 18 18 17 17 17 15 15 18 20 18 20 23 25 23 18 25 22 22 27 31 23 17 19 23 26 19 14 15 20
26 23 20 20 22 22 21 19 16 17 19 18 19 18 17 17 19 22 21 19 17 20 19 14 22 21 24 27 27 25 19 15 18 11 7 7 10 14
29 27 25 24 23 25 23 21 18 18 20 20 19 18 17 18 20 23 21 17 16 15 16 16 18 20 21 22 23 25 22 19 9 9 7 8 8 14
24 28 27 25 24 27 25 25 21 21 21 21 19 17 17 18 21 23 22 19 19 17 11 11 13 15 19 17 16 18 17 16 10 3 6 6 6 6
22 24 26 26 24 26 27 27 24 23 23 21 19 17 17 18 22 20 19 17 17 19 19 11 9 11 13 13 10 13 13 11 5 3 6 8 10 9
24 25 27 28 26 23 24 27 24 21 21 18 17 16 16 18 20 17 16 15 17 16 16 15 15 12 9 7 8 11 9 10 8 7 8 10 11 5
26 27 29 29 27 26 23 22 22 19 17 17 16 14 15 17 18 15 15 15 15 15 14 14 13 12 12 12 8 7 12 9 9 9 9 8 6 5
27 27 30 29 28 27 25 21 20 18 18 19 17 15 15 17 15 15 14 15 14 15 15 11 8 9 12 12 12 7 9 9 7 7 6 4 2 2
23 25 26 27 29 25 23 20 19 19 18 19 19 17 15 16 15 14 13 13 13 13 14 9 8 10 8 7 8 7 7 6 7 6 7 5 4 6
20 22 21 23 25 24 22 20 19 19 20 19 17 15 15 16 14 13 11 12 11 11 12 9 7 8 6 5 6 4 3 4 6 7 7 3 2 3
15 15 16 16 18 23 21 19 19 19 19 19 17 15 15 15 12 12 9 10 10 10 10 8 5 6 7 8 4 2 3 3 4 6 6 6 6 4

GFSNE_850_spd_066.txt.gz
Wind_Speed
16 16 18 22 26 19 18 20 22 25 20 22 13 15 18 20 23 28 31 31 30 30 32 34 35 36 33 29 30 31 32 32 32 33 33 32 33 33
17 18 22 26 23 17 15 14 15 16 21 21 21 19 19 24 28 28 28 28 29 29 30 31 32 32 29 27 27 28 28 28 28 29 30 29 30 32
18 20 24 25 20 17 17 17 17 17 21 23 22 22 26 28 27 27 27 28 28 27 26 26 26 25 25 26 26 27 27 27 27 27 27 27 27 28
19 22 26 23 21 19 20 20 20 21 22 23 25 26 27 27 28 28 26 24 24 23 23 23 24 26 27 28 29 30 30 31 31 32 30 30 29 28
21 25 25 21 22 22 22 22 23 21 20 24 26 27 29 28 28 27 26 24 23 25 22 21 22 24 25 26 28 30 31 31 31 32 32 33 32 32
25 25 23 23 25 23 23 24 25 19 22 23 26 28 28 27 28 28 28 25 25 22 18 16 17 19 20 21 20 20 22 23 25 29 33 33 32 31
24 24 25 26 26 25 24 25 20 20 22 24 26 27 28 27 26 26 26 26 28 19 19 22 21 18 18 18 18 19 20 20 23 25 27 30 32 31
25 26 27 28 24 21 19 19 18 21 23 25 26 27 27 27 24 24 24 26 24 23 29 31 26 22 18 18 19 19 20 23 23 24 25 26 28 30
26 29 29 24 20 19 18 18 21 23 24 25 25 25 27 23 23 23 22 23 26 29 28 32 25 21 17 18 18 21 23 24 22 21 20 23 27 29
28 29 25 20 21 19 20 21 24 24 23 23 25 25 23 20 19 21 22 26 28 26 23 29 19 21 20 15 9 14 17 19 20 21 24 26 25 27
30 27 24 22 20 20 22 23 23 22 21 22 23 22 19 17 17 20 21 26 30 29 22 16 23 26 22 11 11 19 15 15 20 25 26 26 27 29
32 27 25 24 21 23 22 23 23 21 20 21 20 18 17 17 17 18 20 24 24 27 16 23 24 21 22 18 23 22 19 13 16 21 25 31 32 34
32 30 26 22 21 22 22 25 24 19 19 19 19 17 17 17 17 17 18 20 22 24 22 17 24 22 20 28 28 24 24 22 19 20 18 16 14 16
31 30 27 24 24 25 23 27 22 21 20 19 20 20 19 17 16 17 18 20 19 22 19 16 21 23 23 27 30 28 29 21 20 18 14 14 12 12
30 27 25 24 27 26 26 26 22 23 25 22 22 22 18 17 18 18 19 20 19 17 17 17 20 21 20 24 28 27 27 25 16 15 14 10 10 10
29 25 23 23 23 25 25 24 27 26 27 24 24 23 19 19 18 18 21 20 20 17 12 13 15 18 20 22 22 21 19 21 19 12 8 10 11 12
25 22 23 25 24 23 24 24 24 27 28 25 25 24 20 19 17 17 20 18 19 20 19 15 12 16 18 20 20 17 18 17 14 12 9 10 11 10
23 22 24 24 25 24 22 24 22 21 24 25 23 22 19 17 16 16 17 17 18 18 17 18 18 16 10 10 13 11 12 14 12 13 11 8 8 7
21 21 24 26 28 25 24 24 24 22 20 21 21 19 17 15 15 15 15 16 17 16 15 15 14 12 12 12 10 8 12 14 12 9 9 7 6 8
19 20 22 24 24 24 26 27 23 21 19 21 20 19 18 17 15 14 14 15 15 14 14 11 9 10 13 14 15 8 9 11 12 10 9 7 6 7
16 19 20 20 21 23 23 23 21 20 19 19 19 18 18 18 15 14 14 14 14 12 13 11 7 9 10 8 9 9 8 6 8 10 12 7 5 7
13 14 15 16 15 16 18 18 21 20 20 19 20 19 18 17 15 14 13 12 11 11 12 10 7 6 6 6 8 5 1 3 5 7 9 9 6 5
16 15 14 13 15 15 15 15 16 17 18 19 19 19 18 17 14 14 12 11 10 9 10 8 5 5 6 6 5 2 0 2 5 7 7 8 8 5

GFSNE_850_spd_069.txt.gz
Wind_Speed
15 15 15 15 19 21 19 16 15 21 21 14 13 13 14 17 21 25 30 32 31 30 30 31 32 33 33 32 30 29 30 31 32 33 33 32 32 33
16 16 17 18 21 21 18 16 15 17 23 17 16 15 15 18 22 27 30 30 29 28 29 29 30 31 31 32 28 27 27 28 29 30 30 30 30 30
17 18 19 20 23 22 19 17 16 18 20 21 19 17 21 22 22 27 28 28 28 27 27 27 26 26 27 26 26 27 28 29 30 30 30 29 29 29
20 21 21 22 25 22 20 18 19 19 21 23 21 17 21 21 26 28 27 26 26 26 27 26 25 26 28 29 29 29 29 30 30 30 30 30 29 29
22 22 24 26 26 21 20 20 21 22 25 26 21 18 21 24 22 22 24 24 24 24 24 24 24 23 23 23 23 25 25 26 28 29 31 31 30 30
22 25 26 26 26 23 21 22 24 25 23 24 19 20 19 18 21 21 19 18 19 22 20 20 20 22 24 24 24 24 21 20 21 22 22 24 28 31
24 26 27 27 27 27 27 22 20 21 19 18 20 20 20 19 19 18 20 19 20 18 15 16 20 21 20 20 21 21 21 21 21 22 23 23 25 26
27 27 27 28 28 29 30 26 22 20 20 21 21 22 22 20 18 18 18 17 19 13 19 23 20 21 19 16 17 18 21 23 24 25 25 25 25 24
29 29 29 30 29 29 23 22 23 22 23 24 25 23 22 20 18 17 16 17 19 20 23 25 20 20 16 17 15 15 15 19 23 26 26 25 24 25
30 30 32 33 31 26 24 24 24 24 24 24 26 22 20 23 20 16 16 18 19 19 17 23 16 19 19 15 8 6 13 16 19 20 22 25 26 28
32 32 32 34 33 26 24 26 25 24 23 23 24 24 24 22 19 15 16 17 21 20 18 14 17 22 21 16 9 11 14 13 14 19 22 26 30 30
35 33 30 29 29 26 26 27 29 26 22 23 22 23 21 19 17 17 16 17 18 19 9 14 18 17 15 11 11 19 18 18 19 18 20 22 24 26
37 37 34 29 24 25 25 27 27 23 23 23 23 19 19 18 17 16 17 17 17 19 19 17 16 18 16 24 19 20 17 21 19 19 21 19 18 16
37 38 37 32 23 24 27 28 28 25 26 27 23 21 19 17 16 16 17 19 20 21 19 18 20 18 20 23 25 18 20 19 19 20 21 16 15 15
33 35 36 34 25 22 24 23 27 25 26 29 26 22 21 16 17 20 20 21 22 21 18 17 17 18 19 22 24 23 22 20 15 21 19 12 14 15
32 33 31 31 27 23 23 21 22 23 25 26 30 25 23 22 21 19 19 17 17 16 14 14 16 18 19 20 20 22 18 18 20 19 19 13 14 14
34 33 34 28 25 25 24 21 20 22 22 23 26 28 27 23 21 20 20 17 16 15 14 13 14 17 19 21 21 17 16 15 16 16 15 13 10 14
24 25 26 23 23 23 24 21 20 20 21 21 22 23 24 23 19 19 20 16 14 14 14 13 13 14 12 10 11 12 12 13 15 12 11 11 9 9
17 17 19 20 19 20 21 25 20 22 21 21 21 22 22 20 18 19 15 14 13 13 12 11 11 10 11 11 10 8 9 12 13 12 11 10 11 10
14 12 12 14 17 18 18 20 20 20 20 20 21 21 21 19 19 19 15 14 12 12 11 9 9 9 10 11 12 9 7 8 10 12 12 11 10 10
21 19 15 14 14 12 15 16 16 17 19 17 20 20 19 19 21 19 16 15 15 12 10 9 10 9 8 10 8 11 9 6 7 9 12 11 7 6
22 21 21 18 16 14 13 13 14 14 15 16 19 21 19 19 20 19 18 15 13 11 10 9 9 7 6 6 10 8 5 3 4 6 9 9 7 5
24 23 22 22 20 18 16 14 14 12 14 13 16 21 19 20 19 19 17 15 14 11 10 8 7 6 6 6 7 5 3 2 3 4 6 8 8 5

GFSNE_850_spd_072.txt.gz
Wind_Speed
12 11 12 13 14 14 16 17 19 24 24 20 20 17 18 17 18 20 21 23 34 33 31 30 30 30 30 31 31 31 28 28 29 30 31 32 33 33
12 13 14 15 15 16 18 18 19 22 28 22 22 20 20 21 21 23 23 28 27 29 29 27 27 27 27 29 30 28 25 26 27 27 28 29 29 29
15 16 17 17 18 19 19 20 21 21 27 28 23 23 21 21 21 22 24 24 23 25 30 28 26 27 28 29 31 32 31 29 27 28 28 29 30 30
18 19 20 19 21 21 21 22 23 24 27 30 28 25 23 20 21 22 24 22 22 22 29 26 26 29 28 27 28 28 27 27 28 28 28 28 28 29
20 21 22 22 23 23 24 24 25 26 27 27 29 25 24 20 21 21 22 23 21 22 25 25 27 28 26 26 27 28 28 26 25 25 25 26 27 28
20 21 22 23 25 25 25 25 26 28 28 28 27 26 22 21 21 23 23 20 21 20 21 23 23 23 25 26 28 25 25 24 23 22 22 22 22 22
20 22 23 25 28 30 29 27 27 28 28 25 26 22 23 22 22 22 23 23 21 19 18 16 18 21 21 22 23 22 20 22 22 23 22 22 22 23
23 24 25 27 29 30 30 32 32 29 30 28 24 24 24 24 22 21 22 22 22 16 16 21 20 21 20 19 20 24 20 21 22 23 25 27 27 27
25 26 27 27 28 28 27 30 31 28 28 28 27 25 24 22 21 22 21 21 22 20 21 23 19 21 18 19 21 23 16 12 16 20 23 25 26 26
25 27 28 29 28 30 30 29 27 25 25 24 24 24 23 20 19 20 20 21 21 19 17 24 20 20 19 21 21 17 14 13 17 17 19 21 22 24
29 30 31 32 31 32 33 30 28 26 24 28 28 28 29 29 28 22 20 18 20 19 17 21 16 20 20 20 12 13 19 21 17 17 19 20 21 22
34 34 34 37 35 33 33 31 32 27 22 23 20 21 22 22 22 22 18 19 19 20 14 16 18 20 21 15 10 17 15 18 19 21 19 21 20 20
29 33 34 32 34 33 31 29 32 26 24 25 22 20 19 18 18 18 18 19 20 21 17 18 20 20 19 24 20 18 17 15 19 18 19 20 18 15
30 30 30 31 32 32 35 29 29 30 29 28 27 24 22 20 18 18 18 19 20 20 19 20 22 19 21 22 22 19 17 18 18 18 17 19 17 13
29 31 31 30 29 27 30 32 24 26 27 31 30 25 23 20 18 17 17 19 20 20 21 18 19 18 19 22 24 21 20 18 17 13 19 18 16 15
26 28 30 30 30 26 24 26 21 20 22 24 24 21 20 23 23 18 17 16 16 17 16 18 17 17 19 19 20 22 18 17 17 16 19 19 16 15
28 27 24 20 22 22 21 22 20 21 21 21 21 20 21 23 26 21 16 16 16 16 15 14 15 16 18 20 22 19 17 15 14 15 18 15 14 12
22 18 19 18 19 17 20 20 20 21 21 21 20 22 20 22 22 19 16 17 16 15 15 14 14 14 15 16 17 14 13 14 12 14 14 14 14 13
15 15 15 16 15 12 15 15 18 17 18 19 22 22 21 18 21 17 16 15 14 13 13 13 13 12 14 13 10 11 11 11 13 13 12 13 16 15
14 15 15 16 17 17 16 14 14 17 17 18 19 20 22 20 18 16 16 15 14 12 13 12 11 12 12 12 13 11 10 10 7 11 13 14 14 11
15 16 16 17 17 17 18 17 16 13 16 17 18 18 19 20 18 15 15 15 14 12 13 12 10 15 13 11 11 13 9 9 8 8 11 11 11 9
16 16 17 17 18 18 18 19 18 15 13 12 16 17 18 20 17 16 16 14 13 11 12 11 10 9 8 10 12 12 10 7 6 6 10 11 10 8
17 18 19 19 18 18 19 20 19 17 14 12 11 13 14 19 18 16 15 15 14 12 11 10 9 8 8 9 11 10 9 6 4 4 6 9 9 8

GFSNE_850_spd_075.txt.gz
Wind_Speed
12 13 14 13 14 15 16 16 18 24 25 21 22 20 22 23 22 22 22 20 28 35 38 35 30 28 27 28 28 29 27 25 25 26 27 28 30 31
13 14 15 15 16 16 17 18 19 23 29 25 25 24 24 24 24 24 23 28 32 29 33 35 33 28 27 28 28 29 29 26 24 25 26 27 27 28
16 16 17 17 18 19 20 21 22 24 29 31 29 28 28 28 29 27 26 25 27 29 29 32 36 32 30 28 27 27 28 28 27 26 25 26 27 28
17 18 18 19 21 22 23 24 26 26 29 33 34 32 31 29 31 25 22 24 28 27 28 33 34 29 29 25 24 25 27 27 27 26 23 23 24 26
18 19 20 21 23 25 26 27 29 30 30 32 35 33 32 30 30 27 24 25 24 27 26 26 26 29 31 24 24 26 24 23 23 24 23 23 22 22
18 19 21 22 24 26 27 30 31 31 31 32 34 32 30 33 29 30 26 24 24 21 24 25 27 25 24 25 26 26 27 24 23 20 21 21 20 20
19 20 22 24 28 31 33 36 33 33 32 32 34 30 32 30 27 24 23 22 23 21 23 23 22 20 22 22 22 23 18 24 30 28 24 22 21 21
21 22 24 26 28 31 33 33 33 35 37 35 36 35 34 30 24 20 20 21 25 22 22 24 20 23 22 20 21 26 29 27 25 24 20 19 21 24
22 24 26 26 29 30 32 35 36 36 35 34 32 31 32 27 23 23 22 23 24 22 21 25 24 24 22 21 21 26 30 29 22 17 19 21 22 22
23 25 28 31 32 32 34 35 36 37 32 30 30 27 26 25 21 19 18 19 23 23 21 27 23 23 22 20 22 24 24 20 20 19 21 20 22 22
25 26 28 33 35 36 39 39 39 41 35 32 35 35 34 29 29 31 30 25 28 25 20 22 21 20 20 23 18 20 17 17 17 20 23 21 21 23
27 24 27 29 32 34 36 38 43 37 35 31 26 30 30 33 30 30 31 27 24 25 19 19 16 17 23 21 10 18 22 18 21 21 21 20 19 20
28 30 29 27 29 31 32 34 37 35 34 33 30 27 27 21 20 22 23 20 21 24 19 19 19 18 20 25 24 22 21 19 21 20 20 18 18 20
28 28 28 30 31 33 33 34 32 31 32 29 31 31 27 26 26 24 24 22 23 24 20 19 22 21 22 24 24 21 21 21 21 23 19 18 19 17
24 27 29 29 31 30 27 27 27 26 29 27 28 30 31 31 25 26 27 25 24 24 23 23 24 24 20 23 25 24 23 23 20 19 15 18 20 17
25 27 26 24 26 26 26 24 22 21 21 22 22 22 21 21 23 22 25 23 23 23 21 19 18 19 21 21 20 24 23 23 21 18 17 18 19 14
26 24 21 21 23 21 20 21 21 18 20 20 20 20 19 19 21 22 25 25 23 19 17 16 17 17 18 19 23 22 21 19 17 19 11 17 16 14
19 18 20 19 19 20 18 18 14 22 22 20 21 22 22 21 20 20 23 23 21 19 16 14 13 14 17 19 19 23 16 16 16 14 15 16 18 14
13 16 18 19 19 18 19 19 20 19 15 17 19 22 24 24 22 22 22 21 20 16 16 14 13 13 15 18 14 12 12 13 14 15 12 15 19 19
13 15 16 18 18 19 19 19 21 21 18 18 16 20 21 24 23 23 21 20 18 15 14 13 13 13 15 15 16 14 13 11 9 10 13 16 13 12
15 15 16 17 18 18 18 19 18 20 20 19 16 15 19 20 22 23 21 18 17 14 13 13 12 15 17 21 16 14 17 10 8 8 10 12 10 10
16 16 16 17 18 18 19 19 20 19 19 18 17 12 10 16 20 21 21 18 17 16 14 13 11 11 10 11 13 15 13 4 8 5 7 10 12 8
17 17 17 18 18 19 19 19 20 19 18 16 19 17 13 12 13 19 19 18 16 14 11 11 10 10 11 11 12 12 11 11 8 6 10 8 12 11

GFSNE_850_spd_078.txt.gz
Wind_Speed
15 16 17 15 15 18 20 20 21 26 27 23 23 22 24 25 26 26 29 32 34 35 30 31 34 35 36 34 32 29 28 27 24 23 23 24 24 25
14 15 15 17 18 20 21 22 22 25 31 28 28 26 25 27 26 31 31 31 30 30 32 27 30 34 35 37 36 30 29 29 28 26 24 24 25 26
17 18 20 21 23 24 24 25 26 26 31 35 32 31 32 31 33 33 30 31 33 32 28 28 31 34 35 31 29 29 26 25 25 25 25 23 23 24
18 19 20 20 22 23 25 27 28 29 31 37 36 32 30 27 29 28 31 30 33 30 27 30 31 32 26 28 32 25 22 22 19 20 22 23 23 23
18 20 21 23 24 25 26 28 29 30 31 34 39 37 33 29 30 32 33 33 32 28 27 25 22 24 28 28 26 23 25 23 21 22 21 22 22 22
17 19 22 25 27 27 28 29 29 30 31 32 34 33 31 32 32 33 38 34 33 26 25 25 24 26 26 24 22 24 27 23 21 24 28 29 24 21
21 23 23 21 24 27 30 34 35 37 38 40 41 42 37 35 35 35 31 34 24 19 21 21 26 23 21 21 22 24 25 24 26 28 29 26 24 20
23 22 23 24 27 27 29 32 33 33 37 40 40 38 37 37 34 33 30 21 20 17 20 22 21 24 25 27 24 23 26 27 29 31 28 23 19 19
22 23 24 25 25 29 31 32 33 33 33 35 38 39 38 36 32 28 26 21 21 22 21 27 28 31 32 24 22 24 25 28 28 26 21 18 18 19
23 23 26 29 30 30 35 39 42 43 39 32 34 36 37 33 26 25 26 24 23 26 27 33 34 29 22 21 22 24 25 23 19 20 20 21 22 22
29 30 29 29 30 31 35 38 40 41 40 42 40 38 37 38 32 32 31 27 34 38 33 28 25 23 23 22 21 21 23 19 22 21 21 21 22 22
27 27 26 27 28 26 27 31 37 38 37 34 34 35 30 29 27 30 30 32 34 33 26 22 22 21 24 22 17 13 21 24 24 23 21 23 22 22
24 26 27 27 27 27 28 31 35 37 36 34 34 33 31 28 28 27 26 25 25 27 24 19 22 24 24 28 32 30 25 22 20 21 22 22 22 21
26 27 27 26 27 27 27 28 28 28 29 30 31 29 27 27 29 26 27 27 27 27 21 18 23 23 24 28 33 30 24 23 22 21 21 20 16 16
24 25 25 25 24 23 23 24 25 27 28 29 29 28 27 24 25 25 25 30 27 27 26 24 24 24 26 29 28 27 28 24 21 18 20 21 16 17
25 25 24 22 22 26 28 27 24 25 27 27 24 23 21 20 20 18 21 23 24 28 27 26 24 21 23 22 23 24 21 23 21 20 18 17 19 16
26 25 21 20 29 27 25 22 23 22 19 21 24 23 22 21 19 18 18 21 24 27 25 25 20 18 21 21 23 22 24 25 20 18 18 14 15 14
22 19 18 22 26 26 24 24 24 24 26 26 22 25 21 21 22 20 20 21 23 24 22 21 18 16 18 17 18 22 22 18 15 16 18 20 20 14
15 16 19 21 23 24 23 23 24 24 24 24 24 23 18 22 20 21 24 22 23 23 22 19 16 17 18 20 17 15 18 18 18 17 13 12 20 16
15 16 18 21 22 23 24 23 23 24 24 24 23 21 18 17 17 23 24 21 23 22 21 16 14 16 18 19 19 20 20 20 14 14 11 14 12 8
17 18 21 21 22 23 23 22 23 23 24 22 21 20 20 15 12 17 20 23 22 20 18 18 14 14 15 18 21 23 10 11 17 11 6 9 12 6
19 20 21 21 21 22 22 22 23 23 23 20 21 18 21 19 15 10 12 22 21 18 18 17 15 14 12 13 14 13 13 15 13 6 6 7 10 10
22 22 19 22 22 21 22 22 22 23 22 20 21 22 22 21 17 14 12 14 16 15 18 17 11 12 13 13 12 13 15 10 9 9 7 9 7 10

GFSNE_850_spd_081.txt.gz
Wind_Speed
15 15 17 17 15 18 20 21 23 26 30 31 30 25 26 27 26 26 31 33 34 33 34 35 33 33 31 30 29 31 34 28 27 24 23 22 22 22
16 21 16 16 15 16 16 20 22 25 32 31 32 32 30 29 27 31 31 34 36 35 29 28 35 33 28 28 29 30 28 30 26 23 22 21 22 22
25 19 17 17 19 19 20 22 24 26 33 37 36 34 34 33 30 29 31 32 30 26 31 29 31 33 25 26 27 27 27 25 20 19 18 19 20 21
21 16 19 20 20 20 20 22 24 25 30 37 36 34 32 31 29 29 27 22 29 32 33 33 32 27 25 25 25 25 22 21 20 21 20 19 20 21
15 16 18 20 21 23 25 26 27 28 30 34 37 36 37 32 31 32 36 38 40 40 39 32 28 25 22 23 26 24 20 21 22 23 22 23 24 24
14 18 21 23 24 25 26 25 26 29 31 35 39 42 42 41 40 39 41 38 35 34 31 27 27 27 25 25 23 21 21 23 22 21 22 24 26 25
23 24 24 25 26 26 25 27 28 30 31 34 36 37 40 40 40 41 38 35 35 33 30 23 17 17 22 24 23 23 25 25 23 24 24 26 25 24
24 24 25 25 25 25 25 26 28 31 33 33 35 34 38 37 37 38 36 32 31 32 27 17 21 24 23 25 29 27 27 23 25 27 26 26 24 18
24 23 24 25 26 27 29 31 33 34 35 38 42 42 40 38 37 33 34 33 29 28 24 26 25 27 28 31 31 19 18 21 24 25 22 20 21 19
22 24 24 26 28 31 34 35 35 36 36 35 34 36 36 38 42 39 36 33 28 27 25 26 29 32 28 24 18 15 18 20 21 21 21 20 19 19
24 26 27 27 25 27 31 33 34 34 30 29 31 32 31 30 28 28 29 34 32 29 27 30 30 27 23 22 20 20 21 22 20 20 21 22 21 22
26 24 23 23 25 25 26 29 33 34 32 32 32 30 29 30 31 29 30 34 26 30 26 23 21 17 21 23 17 15 17 19 27 31 26 20 20 21
22 21 22 23 23 23 22 24 24 27 29 30 32 32 30 28 26 23 23 29 29 29 26 23 21 19 20 25 27 26 26 27 25 20 20 20 19 19
22 23 24 23 22 22 20 20 21 24 27 28 28 30 29 30 25 23 24 22 25 31 25 22 21 22 20 23 26 27 23 19 18 18 18 16 17 17
23 24 23 22 21 21 21 24 26 27 26 24 22 30 32 28 20 21 20 23 21 21 25 23 23 22 23 24 26 24 21 18 11 14 16 16 17 17
23 23 22 20 19 20 25 26 23 21 21 23 24 20 20 25 22 20 19 20 19 22 19 20 21 23 26 24 21 23 20 20 17 19 18 15 13 13
23 22 20 18 21 25 26 26 24 22 23 23 23 25 25 21 24 24 21 18 18 20 19 16 17 20 22 19 21 21 17 18 18 17 15 16 16 15
19 18 16 19 22 24 26 27 26 25 23 23 23 23 22 24 24 21 20 20 21 21 18 16 17 18 18 19 19 18 17 16 17 18 20 21 22 15
15 15 17 21 23 24 26 27 28 25 23 22 24 22 21 22 21 18 19 22 24 24 21 17 18 18 17 22 19 15 16 16 18 22 17 15 16 15
17 18 20 21 23 25 25 25 25 23 24 24 24 21 19 22 22 19 12 17 27 24 19 18 18 17 18 18 18 16 15 19 21 16 16 10 7 9
19 20 20 22 24 24 24 23 23 24 24 25 23 21 21 22 22 20 18 11 10 19 19 20 16 12 13 14 15 16 16 9 7 10 10 7 6 3
19 20 20 23 24 23 24 25 25 25 25 24 23 20 23 23 22 21 18 15 13 15 25 16 13 14 14 14 13 13 9 7 9 11 9 8 7 7
22 24 25 24 23 26 27 25 24 24 22 22 20 24 25 25 22 19 19 17 13 11 22 14 15 13 15 13 11 11 11 12 10 8 7 8 10 6

GFSNE_850_spd_084.txt.gz
Wind_Speed
28 27 29 22 21 23 20 20 22 23 25 25 25 22 22 23 24 26 28 28 29 29 31 35 36 32 30 30 32 31 28 26 29 29 26 23 23 22
27 30 26 23 23 22 20 18 20 22 28 26 27 27 25 26 26 28 30 30 31 30 32 31 30 28 28 32 31 28 26 25 27 28 25 20 19 20
31 28 25 26 21 16 16 20 22 23 28 30 30 29 30 29 29 28 28 31 32 32 32 30 32 37 39 34 34 26 26 24 26 25 22 22 19 17
28 26 22 19 17 17 21 22 23 23 28 33 34 33 34 34 35 34 33 33 31 31 34 34 33 34 34 34 30 26 26 24 24 23 22 23 23 21
25 20 19 17 19 22 22 23 24 27 29 33 35 34 34 33 34 36 37 36 37 36 35 36 34 33 28 31 32 27 24 24 25 25 23 23 22 24
18 16 18 20 21 23 25 26 28 30 30 32 35 36 35 35 35 37 38 34 34 35 39 34 32 29 27 28 27 25 26 26 26 26 25 23 23 24
19 20 19 21 24 25 26 28 29 31 33 36 37 38 40 39 37 36 37 38 38 38 38 30 33 27 25 25 20 25 27 25 25 27 25 24 25 24
20 19 23 25 26 28 30 29 29 31 33 36 38 39 41 41 42 38 34 34 38 33 28 29 25 21 20 22 26 25 27 30 32 25 23 24 24 22
21 24 25 28 29 29 28 28 30 32 34 38 40 39 39 35 33 33 33 33 35 40 32 32 27 24 23 23 24 28 29 23 20 21 22 21 20 19
23 24 25 25 26 28 32 33 33 32 31 31 33 33 32 31 30 31 31 33 34 32 28 33 30 26 21 24 24 22 19 18 18 21 22 23 20 19
22 23 23 26 29 29 30 30 30 30 28 28 28 29 30 29 27 28 31 29 32 36 30 30 29 24 25 23 21 18 18 20 22 23 21 23 26 27
22 23 25 26 25 23 25 27 29 28 28 28 29 28 26 26 24 25 25 27 27 27 28 30 24 24 23 21 15 12 11 15 18 22 28 28 24 22
22 21 21 21 22 22 23 24 25 27 29 29 31 30 30 28 26 24 25 24 25 31 28 27 23 21 20 19 19 16 16 17 19 20 20 20 20 20
19 20 21 21 21 21 22 22 23 26 28 29 29 28 26 24 23 26 26 22 25 28 26 29 28 24 18 19 22 20 17 15 14 14 11 11 14 18
22 22 23 22 21 20 19 21 23 25 25 25 26 25 25 24 24 23 23 22 23 24 23 24 26 23 19 21 24 22 19 15 13 10 14 15 15 15
24 23 22 21 19 18 19 21 22 22 22 23 24 24 25 24 25 22 22 22 24 25 20 20 26 21 20 21 22 25 18 17 13 12 14 13 11 9
22 21 19 19 19 19 20 21 22 22 23 22 22 24 24 23 23 23 24 24 25 29 22 17 16 18 19 18 19 22 19 16 13 12 14 15 14 14
18 18 18 19 20 21 22 23 23 24 23 21 22 23 23 22 24 22 21 21 21 32 25 20 15 16 17 20 19 20 16 13 13 12 12 18 18 13
19 20 20 21 22 22 23 23 24 22 23 23 22 22 22 21 23 22 23 21 19 15 22 20 17 16 20 22 19 16 14 13 12 14 15 13 16 11
21 19 20 20 21 21 22 23 23 23 23 23 23 23 20 21 22 22 22 22 21 17 16 27 23 18 21 20 16 10 11 12 13 16 13 14 12 8
17 17 19 20 21 22 25 25 25 25 25 24 23 21 20 22 22 22 21 20 18 17 11 14 15 14 15 14 15 12 9 12 12 11 7 8 6 4
19 20 21 23 24 24 25 25 26 25 23 22 20 19 20 22 23 21 20 20 19 18 15 13 15 16 18 18 14 10 8 8 9 10 10 9 9 5
20 21 22 23 23 23 24 25 24 23 21 19 19 20 21 20 20 20 21 19 18 17 14 9 14 16 15 14 12 9 7 8 9 9 9 10 9 9

GFSNE_850_spd_087.txt.gz
Wind_Speed
41 33 38 33 27 31 32 27 26 23 25 26 23 22 20 20 21 21 22 23 24 25 23 25 25 28 30 32 31 35 33 30 30 26 24 25 29 24
41 34 35 32 27 29 29 30 26 24 25 24 23 22 22 23 24 25 26 27 27 28 28 28 29 33 34 35 35 36 36 32 29 27 24 24 23 22
44 34 32 33 29 28 27 25 22 20 26 26 26 25 26 28 28 28 30 31 30 28 30 31 31 32 32 34 37 37 36 33 32 29 26 24 23 23
40 37 34 33 29 26 23 23 22 22 27 30 27 28 29 29 31 32 33 33 33 32 33 33 31 33 33 36 35 36 35 35 34 29 29 27 27 24
37 36 34 28 27 24 23 23 23 25 27 31 32 33 33 33 34 35 35 35 35 34 33 32 32 34 36 37 35 32 30 32 35 27 26 30 30 29
38 33 28 26 23 21 23 24 25 27 30 32 33 34 34 35 36 37 38 38 39 35 35 33 36 36 39 34 33 31 32 36 29 26 30 29 29 30
34 29 23 22 22 24 25 25 27 28 30 33 34 35 36 36 36 37 40 42 42 37 36 34 33 33 30 31 30 29 28 24 22 27 28 28 31 29
23 22 21 20 22 24 25 26 29 30 31 32 34 35 37 37 38 36 36 36 39 35 33 33 24 29 26 29 24 22 22 23 25 28 31 35 28 25
22 20 19 22 23 25 26 27 28 28 31 33 35 35 36 34 34 34 31 32 35 33 29 36 31 29 25 26 22 25 23 26 30 30 27 23 24 25
16 19 21 23 25 25 26 26 28 29 29 29 30 32 32 30 28 28 30 32 33 32 26 32 31 31 27 26 22 27 26 27 24 22 23 23 23 24
18 21 25 23 23 25 26 27 27 26 26 27 28 29 29 26 26 27 28 29 34 35 28 27 30 28 29 27 22 24 24 22 21 22 23 24 25 25
19 18 18 20 22 23 23 24 25 26 26 27 27 28 28 27 24 21 25 26 27 31 26 19 24 24 26 24 23 20 20 16 15 19 22 25 28 31
15 15 17 18 18 19 21 23 25 27 26 27 28 29 28 25 23 21 20 24 28 31 31 28 31 31 29 26 20 19 16 14 14 20 25 27 26 24
15 15 16 18 18 23 23 23 23 23 26 28 28 28 27 27 24 23 23 23 27 32 31 30 33 33 30 31 27 20 18 16 16 17 17 17 14 16
16 18 21 23 26 25 21 20 22 24 26 27 27 28 27 27 27 26 25 24 25 27 27 26 30 31 31 34 27 21 18 16 16 17 14 15 18 18
20 21 24 23 20 19 18 21 22 23 24 25 27 28 27 27 25 24 26 26 27 28 24 25 26 25 33 32 27 21 19 19 18 15 15 16 15 13
18 18 18 17 16 17 18 20 22 23 24 24 24 25 26 26 25 24 23 24 24 26 27 24 27 25 21 22 21 20 18 18 16 15 16 15 14 13
18 18 17 17 17 18 20 21 21 21 22 23 23 25 25 26 26 24 23 23 24 24 25 19 24 28 20 22 22 21 20 17 15 14 15 16 15 9
18 19 19 18 18 17 18 19 20 21 22 23 24 25 25 25 24 24 23 23 23 24 23 19 16 28 24 25 20 18 18 16 14 13 13 14 15 11
18 16 15 15 16 18 19 20 21 23 23 23 23 23 22 22 24 23 23 23 23 23 23 20 15 19 23 23 20 16 14 14 14 14 14 12 13 12
15 15 17 18 20 21 22 23 23 23 23 23 22 21 19 20 22 22 21 21 22 21 23 22 17 12 15 20 19 17 14 12 12 14 12 10 8 7
18 19 20 20 21 23 23 23 23 24 23 21 20 18 19 19 20 21 21 22 21 21 21 21 19 14 13 19 19 15 11 10 11 10 11 12 8 4
21 21 22 23 23 24 23 23 24 24 22 20 19 19 20 19 18 20 19 20 20 21 19 20 18 10 15 20 17 14 11 10 10 14 14 13 11 9

GFSNE_850_spd_090.txt.gz
Wind_Speed
38 37 39 40 40 36 36 31 28 27 27 28 27 25 20 19 18 19 20 20 20 20 22 23 23 24 27 27 28 31 32 34 32 31 30 29 27 24
40 42 43 44 40 33 34 31 28 28 28 28 25 22 20 20 19 21 23 23 23 23 24 25 24 27 27 30 30 31 32 31 34 35 31 30 27 25
44 45 44 39 37 35 36 33 28 29 32 29 24 21 22 23 24 25 26 27 28 27 27 27 29 29 30 32 30 31 32 32 35 35 33 32 29 26
44 44 44 41 38 37 38 33 29 29 27 25 24 24 26 25 26 29 29 28 29 29 30 31 32 32 31 32 33 33 32 34 36 36 37 36 31 29
45 45 41 39 38 42 36 30 29 27 25 27 28 26 26 27 29 30 30 31 31 31 33 35 34 34 34 35 34 36 35 35 35 35 35 35 34 31
43 41 42 42 38 37 32 30 27 25 25 27 26 27 28 28 30 32 33 34 35 34 34 33 32 31 31 34 37 38 37 33 33 31 29 30 30 27
39 41 42 36 33 31 28 25 23 22 24 26 28 29 30 29 29 32 36 36 36 33 32 30 29 28 28 28 32 33 30 30 30 26 26 24 25 27
38 38 36 33 24 20 21 23 23 22 25 27 28 29 29 29 31 31 31 31 35 34 31 35 31 31 28 26 27 29 26 28 27 24 25 26 26 28
31 30 30 28 26 23 24 20 22 24 26 27 28 27 29 28 28 28 27 28 31 33 32 38 34 34 27 25 22 22 25 26 26 25 26 28 32 32
21 20 20 19 19 19 21 25 22 23 25 25 26 25 25 23 23 24 25 29 32 33 28 34 33 34 29 25 22 24 26 25 28 26 28 29 26 24
18 23 21 20 20 21 20 19 20 21 21 22 22 23 20 21 21 24 25 24 32 33 29 30 33 27 26 26 22 21 23 26 27 27 26 25 24 24
18 17 16 17 17 15 15 17 18 20 19 19 19 20 21 21 21 21 22 22 26 31 19 17 27 27 27 29 21 13 19 23 25 25 23 22 22 26
12 11 10 9 11 15 18 18 18 20 20 19 21 23 24 24 24 22 21 24 28 31 31 27 33 33 28 30 32 26 20 22 23 21 20 20 23 28
5 8 10 11 13 13 16 19 18 20 22 21 22 24 25 26 26 24 22 24 27 33 33 28 30 33 30 32 34 30 25 27 22 22 20 20 22 22
14 14 14 18 21 20 17 16 17 18 22 24 24 23 25 27 28 26 25 25 26 27 27 28 28 28 33 36 34 33 28 26 21 21 20 20 22 20
18 19 21 21 18 16 17 19 20 20 21 22 23 24 26 26 26 25 25 26 28 29 24 22 25 26 28 34 34 35 33 27 19 20 18 18 19 20
17 16 15 14 14 15 16 17 19 20 21 22 22 24 25 25 26 25 23 24 26 29 30 26 21 24 27 29 33 32 32 27 20 18 19 21 19 18
15 15 16 15 15 15 16 17 18 19 20 21 22 24 26 26 26 25 23 23 25 26 27 26 24 23 22 23 26 30 23 23 20 17 18 19 18 15
15 15 16 15 13 13 14 17 19 20 22 23 24 25 25 26 25 24 24 24 25 25 25 23 21 18 20 23 22 27 26 21 16 18 18 17 16 14
16 14 12 13 15 17 20 21 22 22 23 23 23 23 22 22 23 23 22 23 24 25 26 22 20 17 18 18 14 20 19 17 17 17 17 15 14 15
17 17 18 19 20 21 22 22 22 22 22 23 24 22 20 20 21 21 21 22 23 24 26 24 20 18 18 17 17 17 17 15 14 14 15 15 13 11
21 20 20 20 21 22 23 24 24 23 24 24 22 20 18 20 21 21 21 23 23 24 25 24 20 17 16 15 17 19 16 14 13 13 13 12 11 5
20 20 21 22 23 24 24 24 25 25 24 24 22 21 20 22 20 19 21 21 23 24 24 24 20 16 16 14 16 16 16 14 12 10 11 9 10 10

GFSNE_850_spd_096.txt.gz
Wind_Speed
37 40 41 43 45 46 48 47 45 35 34 36 38 36 38 35 39 38 37 36 36 35 32 32 32 32 32 31 30 31 32 32 33 32 33 32 33 33
34 37 39 47 48 48 50 50 49 46 37 26 32 35 37 37 40 38 38 38 36 31 30 31 31 31 31 31 32 33 34 35 37 37 37 38 34 33
41 46 48 51 52 52 44 53 51 43 50 52 39 31 34 38 37 37 40 38 34 30 32 32 32 32 33 34 35 35 36 38 40 39 40 40 35 33
47 51 54 52 49 58 59 48 51 57 47 49 43 40 41 42 39 38 38 35 31 28 32 33 33 34 35 35 36 37 38 41 41 41 42 41 40 37
47 48 42 42 44 48 47 47 49 50 48 47 46 46 46 44 41 36 35 34 27 28 33 31 33 34 35 36 38 39 41 41 41 42 43 43 43 42
43 42 44 40 39 40 45 48 48 50 54 57 48 50 48 43 37 37 36 36 30 20 25 30 33 36 37 37 37 37 38 38 38 39 41 42 43 44
35 37 36 38 39 41 41 45 44 44 43 46 45 44 36 33 36 34 34 26 23 22 21 23 30 34 32 30 35 35 36 36 38 39 39 39 41 41
32 33 34 34 34 35 35 37 37 35 35 37 42 36 31 28 28 26 25 21 15 14 19 26 25 26 27 29 33 34 34 36 37 37 37 38 37 34
28 30 29 28 28 28 27 28 28 27 26 26 25 24 22 20 19 18 16 15 18 19 20 24 20 25 27 29 35 34 31 32 34 34 35 34 33 31
21 22 22 22 20 17 16 17 16 16 17 17 16 15 14 14 15 17 20 22 21 21 21 29 26 28 25 23 25 31 33 27 29 31 32 32 30 30
14 13 12 10 9 9 8 8 9 12 14 15 17 19 21 21 18 17 18 18 24 25 21 25 25 28 27 29 25 26 30 26 27 28 30 29 29 27
3 3 3 6 9 11 13 14 15 16 18 20 21 22 21 20 21 24 26 25 23 25 22 27 18 17 21 22 27 22 17 20 23 26 25 25 27 26
6 7 9 11 13 16 17 17 17 17 19 18 19 19 20 21 23 24 25 27 27 27 22 20 18 19 21 28 26 25 26 24 23 23 24 24 27 29
9 11 14 16 18 18 17 16 16 14 15 15 17 17 16 16 17 19 24 25 26 29 30 28 28 22 22 26 33 25 24 25 26 24 23 23 24 29
12 13 15 15 15 13 15 14 13 12 13 13 13 13 15 16 23 23 23 23 25 25 24 24 26 24 23 28 31 31 27 25 25 26 24 21 23 20
14 14 14 14 15 14 14 14 14 12 13 13 12 14 14 16 17 18 19 20 21 21 19 19 20 22 25 26 28 32 28 30 27 25 26 22 23 23
12 11 11 11 11 11 12 12 10 11 13 11 14 15 17 18 19 19 19 21 22 23 22 19 19 21 24 26 29 29 29 30 29 31 25 25 26 25
10 11 11 12 12 12 12 12 12 14 14 15 18 18 19 20 21 22 21 20 21 22 22 21 21 22 23 24 24 27 27 29 29 28 32 23 23 25
10 11 11 12 12 13 14 14 15 16 19 18 19 20 20 21 21 21 20 19 20 20 20 20 19 19 22 24 20 18 19 19 24 23 26 22 24 19
10 10 11 12 12 13 14 15 16 17 17 17 19 19 19 19 20 19 18 18 19 20 21 18 17 18 20 22 26 30 23 26 23 27 23 23 22 16
10 10 10 11 12 13 14 14 15 16 18 17 18 18 18 18 18 17 18 19 20 19 20 20 19 21 23 22 25 26 21 17 22 23 11 25 18 13
10 11 11 12 13 14 15 15 16 17 17 17 17 18 17 17 18 18 18 18 18 19 21 21 21 19 19 20 24 25 23 22 14 20 19 20 17 15
12 12 12 13 13 14 15 15 16 16 16 16 16 16 16 16 16 16 17 17 18 20 20 22 21 19 19 20 22 23 24 22 8 14 20 19 15 13

GFSNE_850_spd_099.txt.gz
Wind_Speed
37 32 33 34 32 31 32 39 40 36 43 41 44 50 49 47 48 47 51 44 47 48 47 46 44 45 44 44 43 41 40 39 39 39 37 36 33 31
35 36 33 32 35 36 38 41 44 47 53 47 52 47 48 45 45 48 47 48 51 50 50 48 46 45 44 42 40 40 39 39 39 39 39 38 38 35
33 35 38 38 39 39 43 46 51 52 53 56 52 48 52 54 54 46 49 53 57 55 53 48 48 44 43 41 39 39 39 39 40 40 41 42 41 41
41 40 40 39 44 47 51 50 46 47 55 59 57 50 51 55 53 47 45 47 54 52 51 49 44 43 41 39 39 39 39 40 42 42 43 43 44 45
39 39 44 46 49 48 46 43 42 46 48 54 54 49 48 48 47 48 48 49 40 38 36 34 35 38 41 40 40 40 40 41 43 44 45 45 47 47
40 38 39 41 41 39 39 39 38 40 43 44 48 47 45 45 45 50 46 43 44 41 32 35 36 38 40 41 37 38 40 42 43 44 45 45 45 46
31 35 39 38 35 34 33 34 34 35 38 41 44 45 44 45 43 43 40 41 41 41 41 37 39 40 40 36 34 34 38 38 37 43 46 44 43 42
32 32 32 31 33 33 32 32 31 31 33 32 35 37 35 35 32 32 35 33 28 26 26 31 28 30 32 33 34 33 38 40 40 39 42 42 41 40
28 27 25 23 23 23 24 25 24 25 26 25 24 23 22 21 18 17 17 19 21 22 22 29 31 35 35 31 29 35 38 42 43 43 47 43 41 38
13 11 12 13 15 16 15 15 14 13 12 12 13 13 14 16 17 19 21 24 28 30 28 32 32 33 31 33 34 38 39 37 38 38 39 37 36 34
4 6 8 10 9 11 12 14 15 17 17 17 17 18 19 21 23 22 21 18 21 23 19 23 29 32 32 34 36 35 34 35 34 32 32 34 33 31
6 7 8 9 11 13 15 17 18 19 20 21 21 22 22 22 22 22 21 23 23 24 16 20 22 19 21 19 20 26 28 26 28 26 23 24 24 27
8 10 11 13 16 18 18 17 16 16 16 18 18 18 18 17 16 17 16 17 20 24 25 26 28 30 28 30 33 25 27 26 24 23 25 27 24 25
11 12 15 16 17 15 16 17 16 15 15 15 15 14 13 13 16 18 21 24 27 28 30 31 35 34 33 31 32 31 28 29 28 25 27 29 28 29
12 14 16 17 15 15 19 20 17 16 15 17 16 14 15 17 19 19 20 20 20 21 22 23 23 24 24 27 28 28 27 27 25 25 29 28 27 26
13 14 13 13 14 14 14 14 14 13 14 14 13 15 18 19 20 20 22 23 25 26 22 22 22 22 24 24 26 31 28 28 26 26 27 29 29 27
10 10 12 13 13 13 13 13 13 15 16 16 19 22 21 22 23 24 24 26 28 28 26 24 22 23 23 24 28 28 31 30 29 29 28 32 30 28
9 11 11 12 13 14 15 15 15 17 18 20 20 20 21 22 24 25 23 24 26 26 24 23 25 25 25 25 23 29 30 30 28 30 29 29 31 31
11 11 12 13 14 14 15 15 16 16 17 17 18 19 20 20 21 22 22 22 22 23 24 24 24 24 27 27 25 22 23 28 26 22 18 21 28 29
13 12 12 12 12 13 13 14 15 16 16 18 18 19 19 20 21 21 21 22 23 24 24 21 20 21 24 29 34 37 28 24 20 25 29 27 24 20
12 11 11 11 12 13 14 15 16 16 18 18 18 18 19 19 20 20 21 22 22 21 23 23 22 24 26 26 30 30 28 23 23 23 23 26 25 15
11 10 11 11 12 13 14 15 15 16 17 17 18 18 18 18 19 20 20 22 21 22 24 25 24 23 24 25 29 31 30 28 22 23 26 26 28 6
10 11 11 11 12 13 14 15 15 16 16 17 17 18 18 18 18 19 20 21 22 23 24 26 26 24 24 25 28 30 29 28 26 20 10 13 12 16

GFSNE_850_spd_102.txt.gz
Wind_Speed
33 34 34 36 34 33 34 34 35 31 33 36 35 41 44 48 51 50 51 47 44 47 53 53 54 55 57 58 55 55 53 52 50 49 47 47 46 43
39 39 42 42 42 38 38 39 39 43 42 45 52 51 47 48 53 53 52 46 45 45 50 55 51 53 56 59 59 57 55 53 51 48 47 46 44 43
41 41 38 38 37 38 40 41 43 47 51 51 51 47 46 47 47 49 48 50 49 52 56 52 53 55 55 58 58 55 50 47 45 43 41 40 40 40
36 35 37 36 36 38 40 45 48 48 50 53 49 47 46 42 44 46 48 46 49 46 52 55 56 51 50 54 53 47 50 45 40 42 40 39 41 43
35 34 35 36 37 38 41 44 51 50 47 46 41 42 42 40 41 43 44 46 47 48 50 51 50 44 46 50 51 50 51 43 45 44 43 45 45 40
32 34 35 37 41 42 43 37 24 28 32 35 36 38 39 40 40 42 43 43 44 42 43 41 40 41 43 47 52 50 46 47 47 47 45 47 41 42
29 31 33 35 42 31 30 29 28 28 29 28 29 30 32 32 32 32 33 34 35 37 40 41 45 46 47 43 43 45 47 50 50 46 45 37 41 44
35 31 28 28 23 30 28 26 22 23 21 20 21 22 24 24 25 26 26 26 27 31 33 37 39 42 40 39 40 39 38 39 41 44 36 36 38 41
24 19 15 15 13 11 14 17 18 17 17 15 16 16 16 17 17 18 18 19 20 22 25 30 28 32 34 37 38 39 38 37 35 30 31 38 42 44
7 2 2 6 8 10 12 13 12 13 13 13 13 14 15 16 18 19 21 22 24 24 25 31 30 34 35 35 35 33 30 28 32 34 38 41 40 39
4 5 6 8 9 10 11 13 15 15 15 16 17 17 18 19 21 22 22 23 25 24 22 28 27 30 28 28 28 27 29 30 35 37 39 38 37 34
6 6 8 9 10 12 13 14 14 14 15 15 16 16 17 17 16 16 15 16 18 19 8 20 26 28 27 26 22 19 19 24 26 32 36 35 31 28
7 8 10 11 13 12 14 16 15 13 13 15 16 14 12 8 10 15 18 21 24 25 28 30 34 35 31 37 43 42 43 45 43 41 40 32 22 25
11 11 12 13 14 16 17 18 15 14 17 19 14 10 12 14 17 18 17 17 17 20 22 22 28 31 36 36 33 36 33 31 32 33 35 33 28 26
12 12 12 12 12 12 13 12 13 14 14 12 12 14 16 20 23 22 23 23 25 26 26 25 26 31 30 32 33 31 33 32 30 25 23 25 23 22
9 8 9 8 7 8 10 11 14 15 16 17 18 19 20 20 23 23 26 28 29 28 24 23 25 27 29 28 29 30 28 29 32 32 34 32 28 24
7 7 11 12 11 11 12 13 14 16 19 20 18 19 20 22 23 24 24 25 26 27 29 28 27 27 29 31 30 29 31 34 32 27 25 29 28 29
7 11 13 14 14 14 14 15 16 18 19 19 20 21 21 23 24 24 23 23 26 28 29 30 31 30 28 25 21 24 27 31 32 32 29 24 20 19
12 13 13 13 13 13 14 16 17 18 17 19 20 20 22 22 24 24 25 25 27 28 28 26 28 28 30 33 39 32 36 36 31 26 25 24 26 27
14 14 13 13 13 14 16 16 17 17 19 19 19 20 21 22 23 24 25 25 27 28 29 27 28 29 31 35 41 40 29 29 31 31 30 25 25 22
11 10 11 12 13 12 13 13 14 16 17 19 19 21 21 22 23 22 23 25 26 28 29 31 30 27 30 33 34 36 35 29 25 28 28 28 26 27
10 9 9 9 10 11 12 14 15 16 17 18 19 20 21 21 21 22 24 26 27 27 29 31 31 32 30 30 33 36 36 33 27 23 20 23 27 23
10 9 8 8 10 12 14 16 16 16 16 18 20 21 22 22 20 21 24 25 25 29 30 32 32 30 31 31 32 36 38 37 33 26 12 16 18 18

GFSNE_850_spd_105.txt.gz
Wind_Speed
30 31 31 30 29 30 33 33 32 34 35 43 40 39 34 34 41 42 40 42 42 41 42 40 43 53 59 59 58 62 58 57 56 56 56 52 50 48
31 29 30 34 36 36 35 40 41 43 43 42 45 43 43 45 44 44 40 40 40 38 38 37 39 43 48 53 56 62 61 62 61 58 55 54 51 50
32 31 36 35 37 41 40 36 39 40 45 45 45 47 47 46 44 38 36 39 36 38 38 37 39 40 43 51 57 61 63 65 62 60 60 59 55 51
41 40 38 37 38 35 34 37 39 40 43 48 48 48 41 33 36 35 35 33 35 34 38 38 39 41 44 48 51 52 51 53 55 58 59 57 50 54
38 36 37 37 37 36 36 38 39 39 35 30 33 30 29 35 35 34 34 34 34 36 38 41 44 46 47 49 50 50 48 45 46 51 54 55 57 52
34 37 38 38 39 40 41 42 39 32 27 30 31 31 29 31 30 30 31 31 33 33 35 36 36 35 37 39 43 45 44 44 45 52 53 51 50 50
36 37 37 37 39 37 39 33 21 21 18 16 18 19 19 22 23 23 25 26 25 26 27 26 28 29 29 31 33 35 38 41 43 46 47 47 50 51
33 28 24 27 28 17 9 7 12 7 10 10 11 15 16 16 17 19 22 24 24 23 26 28 25 28 27 27 26 27 29 30 31 32 35 38 43 46
25 23 18 12 3 3 4 10 10 10 10 9 11 12 13 17 20 21 21 22 23 26 27 30 27 27 26 27 27 28 30 32 32 30 30 32 33 37
17 10 5 4 3 4 7 7 7 8 9 10 11 12 13 16 17 18 19 20 20 20 26 29 26 28 29 28 27 25 24 25 28 30 31 32 36 35
10 7 4 3 2 5 6 8 8 9 10 11 12 11 12 10 13 16 20 24 28 26 22 21 29 41 41 39 34 30 28 25 29 33 23 19 22 31
8 5 4 4 3 4 6 8 8 10 11 12 12 11 9 8 11 16 21 25 26 27 19 30 31 32 31 22 30 37 32 29 36 40 38 37 34 28
9 9 8 8 7 8 9 11 11 11 13 13 12 10 11 13 16 19 20 20 21 19 22 24 28 29 29 41 37 36 33 30 31 31 28 24 24 29
11 10 10 8 9 10 11 9 8 11 12 12 13 14 16 19 21 22 22 21 20 24 28 27 26 25 28 31 34 35 32 29 28 28 26 28 27 19
9 8 6 4 5 8 9 10 12 14 15 15 15 15 16 17 20 20 20 20 20 19 17 17 19 21 25 31 33 37 40 38 29 33 32 31 33 33
6 5 4 3 4 5 8 12 14 15 15 14 15 16 17 18 21 22 23 25 25 24 21 22 24 26 29 28 27 29 27 25 21 21 24 29 31 29
4 5 5 6 8 11 12 13 14 15 17 19 19 20 21 22 22 23 22 22 24 27 29 27 22 22 24 24 25 25 32 37 36 34 31 31 31 26
4 9 10 10 11 12 13 14 16 18 19 19 19 20 22 23 23 22 22 24 25 26 29 28 31 33 33 27 18 29 32 34 33 29 27 27 29 26
9 11 11 11 12 13 14 15 17 18 18 18 19 20 21 22 24 25 24 24 26 27 27 29 30 31 34 38 37 26 33 34 32 32 28 26 29 27
12 12 11 11 12 14 14 15 16 16 17 18 19 20 21 24 25 23 23 25 27 28 29 28 29 30 32 36 44 45 30 30 30 33 31 29 28 24
10 9 10 10 11 12 14 14 15 17 17 18 19 21 23 25 25 24 24 25 26 28 29 32 31 29 31 32 36 41 38 30 27 30 30 29 27 28
8 7 8 10 11 12 13 14 15 16 17 19 21 23 24 25 26 26 26 27 27 26 29 30 31 34 33 34 37 42 44 39 31 24 19 22 25 20
9 9 9 10 10 11 12 14 14 16 17 20 22 24 25 27 27 26 26 24 26 26 27 33 36 35 35 35 37 42 43 42 36 29 11 7 13 14

GFSNE_850_spd_108.txt.gz
Wind_Speed
32 29 27 29 28 29 27 29 31 30 34 38 39 38 35 35 35 33 33 31 36 35 36 35 37 38 38 38 39 43 45 50 59 59 62 65 62 59
32 31 31 30 32 31 29 33 35 37 41 45 43 40 38 40 39 38 37 34 38 36 38 39 38 38 38 38 39 40 42 45 48 52 55 64 69 65
34 34 35 33 30 30 33 35 36 38 41 43 41 38 40 42 37 39 36 31 33 36 40 37 36 37 37 39 40 41 43 43 46 50 51 56 64 67
33 32 32 33 33 37 37 36 38 39 40 41 36 36 33 26 22 25 29 31 34 36 38 38 39 41 42 43 44 44 43 44 45 46 45 47 46 54
29 31 35 36 39 39 37 38 39 40 38 36 36 31 26 28 29 31 32 33 31 35 35 37 39 40 40 39 38 38 39 40 41 42 42 42 42 44
35 36 38 41 39 38 39 41 38 35 34 27 24 22 20 24 26 28 28 28 29 29 28 29 33 34 34 33 32 33 34 34 33 32 32 33 35 40
39 36 35 37 38 40 40 34 26 23 17 14 15 16 19 20 22 24 25 26 23 26 27 26 28 28 28 28 28 29 30 30 31 33 34 35 37 40
31 32 33 34 30 20 12 10 8 6 8 9 12 15 16 17 18 21 25 27 25 25 29 30 29 31 30 28 28 28 25 25 26 26 28 32 34 34
29 30 24 16 9 4 3 3 5 9 11 11 9 11 14 17 20 21 20 20 21 25 29 31 29 30 29 28 24 23 20 23 28 29 31 32 32 33
20 16 12 9 6 3 2 6 7 6 6 7 9 10 13 17 18 18 19 22 22 23 32 32 31 33 38 35 30 31 32 31 33 35 36 36 36 31
14 12 10 8 7 2 5 6 4 5 6 9 10 12 12 13 16 19 24 27 30 29 25 25 34 42 42 29 26 22 30 39 33 32 31 32 36 35
17 13 8 5 6 6 3 3 4 6 7 8 8 9 11 15 18 21 23 25 27 27 19 34 35 36 30 26 25 38 33 33 33 32 28 26 25 25
13 9 6 5 3 4 3 3 6 7 8 9 11 12 14 16 17 19 20 22 23 23 25 23 24 26 24 35 29 37 34 41 40 37 33 31 30 26
12 10 7 2 4 3 5 8 6 8 9 11 11 13 16 19 20 20 20 20 19 20 20 18 22 23 28 36 40 41 38 33 25 22 23 28 32 34
13 9 6 6 7 7 9 8 8 9 11 12 14 15 16 18 19 19 19 20 20 20 20 19 21 23 23 27 32 36 37 35 22 29 35 34 32 31
13 14 9 4 5 8 8 9 11 12 13 14 14 15 17 18 20 21 22 24 25 24 21 20 20 21 26 26 28 33 33 31 40 36 34 32 29 28
11 9 8 6 7 8 9 11 11 12 14 15 16 17 18 20 21 22 22 23 24 28 29 27 25 24 24 24 29 30 30 37 38 39 32 32 31 27
10 10 9 8 9 10 10 10 11 13 15 16 17 18 20 22 23 23 23 25 27 28 30 30 33 35 35 29 19 28 35 38 38 33 31 32 34 29
8 10 10 9 10 9 10 10 12 13 14 15 16 19 21 23 25 25 26 27 28 29 30 30 30 31 36 42 40 22 35 37 37 38 34 32 35 33
11 11 10 9 9 8 9 9 10 11 13 15 17 19 21 24 26 26 27 28 29 31 32 29 29 29 31 37 45 45 33 32 35 38 39 36 33 29
9 8 9 8 8 7 7 8 9 11 13 14 16 19 21 24 26 26 27 28 29 29 30 31 32 30 33 36 40 45 39 31 28 32 35 34 31 29
7 7 7 6 5 5 5 7 8 10 12 14 17 18 21 24 27 28 29 29 28 27 30 33 34 35 36 35 40 44 44 39 29 25 19 21 23 12
6 5 5 4 4 3 5 7 8 11 13 15 16 19 22 26 27 27 28 27 27 29 31 34 35 35 37 37 40 44 42 40 38 28 8 6 4 9

GFSNE_850_spd_111.txt.gz
Wind_Speed
41 37 36 32 23 21 24 28 24 26 33 33 37 35 35 34 31 31 30 32 32 32 35 36 35 38 40 41 41 42 42 43 44 42 45 41 41 54
31 26 27 34 34 30 28 29 28 29 35 35 38 38 36 33 31 30 31 34 38 33 38 37 35 37 40 42 42 41 42 43 45 47 48 45 44 45
25 24 28 31 31 30 30 29 28 31 36 40 38 36 35 35 34 32 34 31 31 31 34 36 37 41 44 43 43 42 44 46 49 48 47 46 46 48
30 27 27 28 30 31 32 36 34 37 37 37 38 37 40 36 32 28 26 24 27 30 36 37 39 38 40 40 40 42 43 43 45 45 44 44 45 48
26 26 30 30 31 34 35 34 38 38 37 36 33 29 25 26 25 25 28 27 28 31 30 30 32 34 36 38 38 40 42 43 44 42 44 43 42 43
25 27 28 29 33 34 36 38 38 37 35 29 25 22 19 18 21 23 24 23 24 28 27 27 28 29 30 30 32 34 35 36 36 37 38 40 41 42
28 29 30 33 33 35 35 34 30 23 21 15 11 11 13 16 20 22 24 25 25 29 29 27 33 33 34 33 34 34 36 37 39 38 38 39 41 43
30 32 34 35 34 32 29 20 14 11 9 5 7 9 13 16 17 21 24 27 28 29 34 33 34 36 36 35 35 35 35 37 38 40 37 39 40 42
32 32 28 22 21 17 9 7 6 3 4 6 10 11 13 15 19 21 23 24 26 31 36 38 35 35 35 35 34 32 33 34 35 35 37 40 43 44
27 26 24 20 13 11 8 4 1 2 6 7 7 9 12 15 19 22 25 27 26 28 35 36 36 40 43 38 31 28 30 31 38 38 37 35 33 32
24 21 19 16 14 8 4 1 2 4 5 7 8 11 13 17 20 22 24 28 31 29 28 32 39 45 45 35 30 24 37 40 40 40 40 36 32 32
23 21 17 14 11 3 3 3 2 4 4 7 8 10 13 16 18 20 23 25 28 30 26 35 36 37 32 27 31 44 43 41 40 39 36 32 28 28
25 22 16 10 8 6 6 5 4 5 5 7 9 10 12 14 17 20 22 24 25 25 27 25 29 33 31 41 41 46 42 44 41 38 34 31 31 31
21 17 12 8 9 7 7 6 6 5 6 7 8 11 14 17 19 20 21 21 21 23 25 24 27 29 32 40 44 46 44 42 39 36 31 38 41 37
14 12 10 8 8 8 10 8 7 6 7 8 13 15 17 18 18 19 20 22 22 23 24 24 26 29 29 34 41 46 45 45 34 27 44 42 39 36
13 13 12 10 7 9 9 8 8 10 12 13 15 16 17 19 22 24 26 26 26 24 23 26 27 28 32 34 35 41 40 36 42 42 42 41 37 30
13 11 11 11 10 9 10 11 11 12 13 15 15 17 19 21 24 25 25 26 28 31 32 30 29 30 31 33 37 33 38 41 40 42 39 41 40 36
13 12 11 11 10 11 10 11 12 12 14 15 15 17 20 23 24 25 26 27 29 30 32 32 34 39 42 39 22 31 39 41 45 41 37 38 43 39
10 12 12 11 10 10 10 10 12 12 13 13 16 18 20 21 25 26 27 27 29 30 31 31 34 37 42 50 48 28 41 44 43 44 38 37 41 41
11 11 11 9 9 8 9 9 10 10 10 12 14 16 19 22 24 25 27 29 31 32 34 33 34 34 35 40 48 52 39 36 38 41 42 39 37 31
11 10 8 7 7 7 8 8 8 9 9 11 13 16 18 21 23 26 29 30 32 33 34 35 34 33 37 40 44 50 42 36 32 33 31 30 30 23
8 7 7 6 5 5 6 6 7 7 8 11 13 15 17 21 25 27 29 32 32 32 32 32 34 37 38 39 43 43 45 37 29 17 15 14 13 11
6 4 5 4 3 3 4 5 6 7 9 11 13 15 18 22 24 26 29 30 31 31 31 33 34 35 37 38 38 39 39 37 35 33 24 18 17 20

GFSNE_850_spd_114.txt.gz
Wind_Speed
42 41 42 39 32 31 22 20 17 20 23 24 25 27 25 27 25 24 25 27 27 28 31 33 36 36 37 39 39 40 40 41 42 42 43 44 46 46
46 46 43 41 43 39 29 25 22 22 25 26 26 26 29 30 30 29 28 29 29 32 37 36 32 33 35 35 35 39 43 46 46 46 46 47 49 51
48 48 41 43 36 27 28 32 31 26 27 27 27 30 33 33 31 31 29 27 29 31 32 32 35 34 33 37 40 41 43 44 43 44 46 47 48 51
41 35 37 28 25 29 29 27 28 28 30 34 31 31 31 30 28 22 19 18 23 24 28 30 34 37 36 37 36 38 39 41 42 42 46 47 48 49
36 34 28 22 21 25 25 26 29 31 32 27 27 31 29 27 18 18 19 22 24 24 26 26 26 29 29 29 31 33 34 38 41 41 42 43 43 43
26 23 26 22 23 24 25 27 27 30 31 30 27 25 24 22 23 23 19 19 21 23 23 25 27 28 29 30 31 34 35 37 40 41 44 44 44 44
24 21 22 22 22 24 24 26 29 27 26 22 18 17 14 13 14 17 20 20 24 25 24 25 30 32 31 30 32 33 35 38 40 40 41 41 44 45
20 22 23 23 24 26 27 28 27 21 17 15 13 10 8 11 13 17 19 22 23 25 30 27 29 30 30 30 31 30 30 33 35 36 37 40 43 43
19 21 22 22 23 21 17 15 12 11 12 9 6 5 8 11 12 15 19 21 24 28 32 32 29 34 35 35 33 32 32 32 36 42 42 42 43 42
23 23 21 18 13 12 11 11 10 8 5 1 2 3 7 11 15 17 20 20 20 27 32 31 38 40 40 36 31 30 35 39 39 40 40 41 40 39
21 19 18 16 15 13 11 9 7 5 4 3 6 9 10 12 15 17 19 24 25 26 26 33 38 44 42 37 27 40 37 38 38 39 40 39 38 34
24 21 19 17 18 12 7 7 6 6 5 6 8 9 11 14 16 19 21 24 27 24 25 33 34 38 32 24 38 45 44 42 41 41 40 37 34 32
27 24 21 17 13 13 10 6 5 5 6 6 7 9 11 13 16 20 23 24 24 23 25 28 31 33 30 41 43 48 48 47 45 42 38 37 37 32
27 25 19 16 14 11 10 10 10 8 6 7 7 9 13 17 20 21 21 21 22 23 25 26 29 30 33 43 46 51 48 46 42 42 42 41 42 39
22 18 17 13 11 10 8 9 10 8 8 8 12 15 17 18 18 19 21 20 20 21 23 25 27 31 33 38 44 50 48 46 42 40 45 44 43 41
19 19 16 13 12 13 13 12 11 10 11 11 13 16 17 18 20 23 25 26 25 21 22 26 28 31 35 37 40 42 41 40 47 48 46 46 45 41
17 17 18 17 16 14 13 11 12 11 11 13 14 15 16 18 21 24 26 28 30 32 30 27 28 31 33 36 42 39 44 46 44 45 44 47 45 41
17 17 17 16 14 13 12 11 11 10 11 12 13 14 16 19 22 25 27 30 31 31 30 31 35 41 45 37 36 41 42 47 44 42 38 42 47 39
14 16 15 14 13 12 11 10 10 9 10 9 12 13 16 19 23 26 28 31 31 31 30 31 34 38 45 51 51 38 42 38 42 45 41 38 40 33
13 14 14 13 12 10 9 9 9 9 7 8 11 13 16 20 24 27 29 31 32 32 31 30 31 33 35 38 42 37 36 36 35 38 37 34 30 25
13 13 12 12 10 9 8 8 6 6 6 8 10 13 16 20 23 25 28 30 31 31 31 31 30 29 33 33 35 38 30 31 29 30 35 36 35 27
12 10 11 10 9 8 6 5 5 6 7 8 11 14 16 19 21 24 28 31 30 29 29 29 29 30 30 29 31 32 32 29 25 28 33 31 28 23
10 9 9 8 6 5 4 5 5 5 7 9 11 14 16 18 20 23 26 28 28 28 29 29 27 28 29 28 27 27 26 25 27 28 28 29 30 29

GFSNE_850_spd_117.txt.gz
Wind_Speed
46 44 41 38 34 28 28 24 22 22 21 20 23 25 21 22 20 23 25 28 28 27 28 30 31 32 34 35 33 36 36 35 37 39 41 44 45 45
46 44 42 39 35 33 34 27 24 22 20 25 23 22 24 24 23 26 28 30 30 31 31 31 30 34 35 34 34 38 35 37 38 41 44 47 46 45
45 43 39 35 36 36 36 29 34 35 30 29 23 23 23 24 24 28 28 27 26 29 30 30 30 33 31 32 32 33 37 39 40 39 40 42 43 43
49 47 50 47 44 43 48 43 40 32 30 29 27 26 28 30 24 21 20 20 21 22 23 24 23 24 26 27 30 31 32 35 38 38 39 41 43 44
49 51 47 45 48 48 40 30 32 32 30 29 27 28 26 20 19 18 16 18 17 21 20 21 23 24 26 28 30 31 32 34 36 38 39 41 42 44
43 42 44 44 47 35 30 29 30 26 26 27 27 26 22 21 18 15 14 15 15 16 18 20 22 24 24 26 27 30 32 33 35 37 38 39 40 41
33 35 38 35 31 28 29 29 25 24 24 25 24 21 18 15 12 11 11 14 17 16 17 22 23 24 25 28 30 31 31 32 33 34 36 39 41 42
40 34 27 29 25 25 23 21 20 20 21 19 16 14 9 4 5 9 12 13 14 17 21 24 25 26 27 28 29 29 29 31 35 37 39 41 43 44
27 26 24 24 22 21 21 21 21 20 16 12 10 6 1 3 8 12 14 16 17 21 24 23 26 28 30 31 29 26 30 32 35 37 39 40 42 43
22 21 19 17 16 16 15 16 14 14 12 9 6 4 6 7 8 11 14 16 18 20 24 24 27 29 33 30 23 29 29 32 33 34 36 38 41 42
22 19 16 16 15 13 13 13 16 15 12 9 6 5 7 9 13 13 15 17 18 17 20 29 27 30 29 23 31 35 34 34 34 36 37 38 39 40
23 21 18 17 21 19 14 13 12 13 12 11 9 9 7 8 10 13 16 19 20 14 21 28 27 28 17 13 31 37 34 31 39 40 38 38 35 34
27 25 23 22 20 18 15 16 15 13 8 7 8 9 11 12 14 16 18 19 20 19 20 24 25 22 19 28 34 34 26 33 37 35 31 31 34 35
31 29 27 25 23 21 16 14 11 10 11 10 11 11 12 14 16 18 19 19 19 18 19 20 22 22 24 29 31 35 36 34 30 31 30 36 34 34
28 28 27 23 23 21 14 12 14 13 12 11 12 14 15 16 16 16 17 17 17 18 19 20 23 26 29 32 35 32 37 37 23 35 33 33 35 34
29 25 22 21 16 17 19 17 14 13 12 13 15 15 14 14 16 18 20 20 19 20 21 22 25 27 31 30 28 31 26 26 40 35 38 40 36 29
26 25 23 21 22 22 20 17 15 13 13 15 14 14 14 15 17 19 21 23 24 23 22 22 25 28 28 28 27 28 28 27 30 37 39 39 35 30
23 24 26 24 22 21 19 17 15 13 14 13 12 12 13 15 17 20 22 24 24 23 23 25 28 31 30 29 27 30 30 33 35 37 32 32 36 30
23 26 24 22 21 19 17 15 14 12 11 10 10 10 12 15 17 20 22 24 24 22 21 24 26 30 28 26 24 28 32 34 38 41 32 32 32 34
22 22 22 20 19 17 15 13 12 11 9 8 8 9 11 13 16 18 22 24 23 22 21 21 23 25 23 21 22 24 27 30 32 35 38 33 28 34
21 20 19 18 16 14 13 11 10 9 7 7 7 8 10 12 14 17 21 23 23 22 21 21 21 22 20 18 18 22 17 16 21 24 28 24 26 26
19 18 18 16 14 12 11 9 8 6 5 5 6 8 9 11 14 16 19 22 23 23 21 20 20 20 19 17 18 20 21 18 16 15 18 20 21 19
16 15 15 13 12 10 8 7 5 4 3 4 6 7 9 11 13 15 17 20 23 22 21 20 20 19 19 18 18 17 19 20 21 19 18 19 19 17

GFSNE_850_spd_120.txt.gz
Wind_Speed
44 43 36 28 26 25 26 22 25 19 14 16 20 22 22 19 20 24 24 25 25 27 28 28 29 30 32 33 32 33 35 36 35 36 39 40 41 41
44 41 38 36 38 36 31 26 30 28 21 24 23 23 20 22 23 25 26 27 28 29 28 29 29 31 31 32 32 32 31 34 37 39 40 42 43 43
45 43 41 46 41 39 33 30 30 28 25 24 25 24 21 22 26 24 27 28 29 31 28 27 27 26 26 26 27 28 30 32 35 37 37 38 39 40
44 46 46 45 40 40 36 33 34 31 32 28 31 30 28 31 24 24 24 25 23 22 22 21 20 21 22 24 27 29 29 31 33 36 37 38 40 42
44 46 49 47 42 40 40 40 38 40 42 37 28 26 24 23 22 22 20 19 17 18 19 18 18 19 21 26 27 26 27 28 32 34 37 40 41 42
57 47 49 45 35 48 45 44 43 43 35 31 32 33 26 23 21 19 18 16 15 14 16 17 18 19 19 21 24 27 28 29 32 34 36 38 39 41
48 43 44 48 35 44 45 46 38 38 32 33 27 24 23 20 18 15 12 10 9 10 13 16 17 17 19 21 24 25 25 27 30 32 34 37 38 40
45 43 40 39 41 36 37 38 38 32 31 25 25 24 19 13 10 7 5 6 8 7 14 13 16 16 18 20 21 21 24 26 28 31 34 36 39 41
34 36 34 34 35 37 35 30 26 26 24 20 19 15 12 8 4 0 3 6 8 11 13 13 16 17 20 18 16 22 23 25 28 30 32 34 37 40
33 34 31 29 26 28 27 27 22 19 16 15 14 13 9 6 4 3 6 7 8 11 13 14 17 20 19 13 20 21 22 24 24 27 29 32 37 40
29 25 24 21 21 20 20 19 19 19 19 15 13 12 7 4 5 5 4 5 6 7 13 18 15 19 16 19 20 22 23 22 24 24 28 31 33 37
25 24 21 21 21 18 14 17 20 21 19 17 12 9 8 5 3 4 7 8 9 5 13 17 15 17 11 21 21 21 22 23 29 28 29 30 32 33
29 26 24 23 24 24 21 20 20 20 15 13 12 10 8 7 7 9 11 12 11 7 13 15 15 16 15 20 21 20 20 24 23 22 24 30 33 31
32 31 31 30 29 27 23 20 19 18 16 14 12 11 11 11 11 12 12 12 11 11 12 15 15 14 16 21 21 22 21 21 20 21 27 27 29 31
33 34 34 30 28 24 21 20 20 18 17 16 14 13 13 12 11 10 12 13 11 10 11 12 14 14 14 15 19 21 23 22 16 26 26 25 27 29
36 34 32 28 26 24 23 21 20 18 17 16 15 14 13 11 11 12 12 12 9 9 12 13 14 15 14 12 14 17 18 16 22 23 25 25 24 25
33 32 31 28 26 26 25 23 20 18 17 17 15 13 11 10 10 12 12 12 10 10 10 11 14 13 11 12 12 12 17 18 21 23 26 25 24 27
33 32 29 27 26 26 23 21 19 18 17 15 13 11 10 10 10 11 13 13 11 11 12 14 16 15 13 9 14 17 17 21 24 26 25 26 26 27
25 28 28 27 26 24 21 19 18 16 15 13 11 9 8 8 10 11 13 14 12 11 11 13 14 16 15 13 8 14 19 21 24 24 22 24 27 25
27 28 27 25 23 21 20 18 17 15 13 10 8 7 6 7 8 9 12 15 13 11 10 10 11 15 14 14 16 12 17 22 23 24 24 25 22 17
26 26 24 22 21 19 18 16 14 12 10 8 6 5 4 5 6 8 11 14 14 12 11 12 13 14 13 13 15 16 13 15 17 20 22 24 23 18
23 22 22 20 19 17 15 13 12 10 8 6 4 3 3 4 5 7 9 11 12 13 13 14 13 12 11 12 15 18 17 14 14 14 13 20 22 17
21 20 19 18 16 14 13 11 10 8 6 4 2 1 3 4 5 7 9 10 12 14 14 15 13 11 11 12 15 16 18 17 17 16 13 14 18 18

GFSNE_850_spd_123.txt.gz
Wind_Speed
49 39 36 31 31 24 25 21 30 22 20 20 26 26 24 21 22 24 23 24 25 26 27 27 27 29 28 29 30 31 32 32 33 32 33 35 37 38
44 42 37 33 33 26 27 23 26 25 20 24 25 26 22 21 23 25 27 27 28 29 31 31 29 29 30 29 29 27 24 26 29 32 33 34 36 37
41 40 41 35 32 33 34 33 30 24 24 20 20 19 22 26 28 30 30 25 26 29 30 32 31 29 27 25 23 24 25 27 29 32 33 34 35 37
44 41 42 39 36 41 39 33 30 24 28 21 19 21 26 27 28 29 25 24 23 28 27 26 25 22 22 23 24 25 25 28 30 30 32 33 34 35
45 42 42 40 41 41 37 36 28 31 33 28 27 32 33 30 32 26 24 22 23 22 20 18 18 17 19 20 20 21 24 26 28 29 31 31 31 32
44 43 42 44 47 46 39 36 32 28 35 35 38 35 35 33 29 25 22 20 19 17 16 14 13 14 15 18 21 24 26 25 26 26 26 28 30 33
46 43 42 42 43 42 34 40 33 40 37 32 33 34 34 30 28 24 19 15 11 11 12 10 9 11 16 18 22 20 21 22 21 22 24 27 30 33
52 49 48 43 42 39 39 39 36 36 35 33 37 37 33 27 23 18 13 10 6 5 8 8 14 14 13 16 13 15 18 19 21 22 24 26 30 33
49 49 48 50 50 49 48 41 38 32 34 37 37 30 26 20 15 11 7 4 2 5 10 8 11 10 11 9 11 15 16 18 17 19 22 25 28 30
32 37 43 41 36 37 44 39 31 27 24 24 21 21 16 14 10 8 4 2 4 5 6 6 9 9 7 7 12 13 13 14 16 19 19 21 23 26
26 31 33 34 31 29 29 30 28 25 23 20 19 18 16 12 8 4 2 1 2 4 5 8 8 11 5 7 11 11 12 14 16 16 17 19 24 27
26 26 28 28 26 23 22 26 26 24 21 20 19 16 11 8 7 4 2 3 3 2 6 7 7 11 6 8 12 13 13 15 17 18 20 24 27 28
31 31 29 26 26 25 20 21 19 25 23 20 16 13 12 10 8 7 5 4 5 3 3 6 6 7 6 13 13 10 16 17 18 17 21 20 22 26
35 34 31 27 26 25 24 23 24 22 20 19 17 15 13 12 9 7 6 6 5 3 4 5 6 7 10 12 9 14 13 16 13 20 19 18 20 24
34 33 34 31 32 30 26 25 25 23 20 17 18 16 14 12 9 7 7 6 5 4 6 6 7 7 7 9 12 13 18 15 14 17 18 20 24 25
39 39 37 33 29 30 30 26 22 20 20 19 18 16 13 11 9 8 8 7 7 7 8 7 8 8 7 8 10 11 12 12 17 16 20 22 22 22
36 36 34 32 30 28 25 23 22 21 19 18 16 14 12 10 9 9 9 8 6 6 6 7 8 9 8 8 10 8 11 10 15 18 20 21 18 19
37 37 34 30 27 26 25 23 21 19 18 17 15 13 11 9 8 9 9 8 6 7 7 9 10 11 7 5 10 10 11 14 17 18 18 22 24 21
32 30 28 27 27 25 24 23 21 19 17 15 13 11 9 8 7 8 8 9 8 7 7 8 9 11 11 9 8 8 15 18 20 20 20 22 23 25
27 27 26 24 22 22 22 21 20 17 15 12 11 9 7 6 6 6 7 9 9 9 9 8 9 12 14 11 15 14 17 22 20 22 24 22 21 22
24 25 23 23 21 21 20 19 17 15 13 11 9 6 6 5 4 4 6 9 10 9 10 11 12 14 14 15 16 18 16 14 15 19 22 23 23 24
24 23 21 20 19 18 17 15 15 13 10 8 7 5 4 3 2 4 5 7 8 10 10 12 12 11 11 12 15 19 18 15 13 13 12 16 20 22
21 21 20 19 18 17 16 14 12 10 8 7 5 3 2 1 3 4 5 7 8 10 12 13 12 10 10 11 14 17 16 19 18 19 15 11 16 17